WA4BPS Weather Reports


time (UTC)temp
F
wind
direction
speed
knots
gust
knots
rain 1hr
in
rain 24hr
in
rain mn
in
humidity
%
barometer
mb
20260904175925 90 37 3.5 7.0 0.00 0.00 0.00 54 1014.7
20260904175824 90 44 3.5 7.0 0.00 0.00 0.00 55 1014.7
20260904175727 90 360 0.9 6.1 0.00 0.00 0.00 53 1014.9
20260904175625 90 352 2.6 6.1 0.00 0.00 0.00 53 1014.9
20260904175528 90 339 3.5 6.1 0.00 0.00 0.00 53 1014.9
20260904175428 90 337 4.3 6.1 0.00 0.00 0.00 53 1014.9
20260904175334 90 347 4.3 6.1 0.00 0.00 0.00 55 1014.9
20260904175230 90 20 0.9 4.3 0.00 0.00 0.00 54 1014.9
20260904175129 90 21 0.0 4.3 0.00 0.00 0.00 54 1014.9
20260904175027 90 21 0.0 4.3 0.00 0.00 0.00 54 1014.9
20260904174930 90 23 0.0 6.1 0.00 0.00 0.00 56 1014.9
20260904174829 90 23 0.0 6.1 0.00 0.00 0.00 55 1014.9
20260904174749 90 21 1.7 6.1 0.00 0.00 0.00 55 1014.9
20260904174657 90 23 2.6 6.1 0.00 0.00 0.00 54 1014.9
20260904174535 90 21 2.6 6.1 0.00 0.00 0.00 54 1014.9
20260904174435 90 20 2.6 6.1 0.00 0.00 0.00 53 1014.9
20260904174333 90 1 1.7 6.1 0.00 0.00 0.00 53 1014.9
20260904174233 90 4 1.7 6.1 0.00 0.00 0.00 53 1015.1
20260904174136 90 325 3.5 6.1 0.00 0.00 0.00 53 1015.1
20260904174034 90 322 1.7 6.1 0.00 0.00 0.00 55 1015.1
20260904173936 90 40 0.0 4.3 0.00 0.00 0.00 57 1015.1
20260904173834 90 37 0.9 4.3 0.00 0.00 0.00 57 1015.1
20260904173732 89 38 0.0 5.2 0.00 0.00 0.00 56 1015.1
20260904173631 89 38 0.0 5.2 0.00 0.00 0.00 56 1015.1
20260904173535 89 38 0.0 5.2 0.00 0.00 0.00 55 1015.1
20260904173432 89 38 0.9 5.2 0.00 0.00 0.00 57 1015.1
20260904173331 89 40 0.9 5.2 0.00 0.00 0.00 57 1015.1
20260904173241 89 40 1.7 5.2 0.00 0.00 0.00 56 1015.1
20260904173151 89 40 3.5 5.2 0.00 0.00 0.00 58 1015.1
20260904173029 89 30 3.5 5.2 0.00 0.00 0.00 56 1015.1
20260904172927 89 32 3.5 5.2 0.00 0.00 0.00 55 1015.1
20260904172831 89 17 2.6 5.2 0.00 0.00 0.00 56 1015.1
20260904172730 89 31 2.6 6.1 0.00 0.00 0.00 57 1015.3
20260904172648 89 28 0.9 6.1 0.00 0.00 0.00 58 1015.3
20260904172526 89 27 1.7 6.1 0.00 0.00 0.00 58 1015.3
20260904172425 88 30 1.7 6.1 0.00 0.00 0.00 58 1015.3
20260904172343 88 30 0.9 6.1 0.00 0.00 0.00 59 1015.3
20260904172241 88 32 1.7 6.1 0.00 0.00 0.00 60 1015.3
20260904172139 88 32 2.6 6.1 0.00 0.00 0.00 59 1015.3
20260904172042 88 34 4.3 6.1 0.00 0.00 0.00 58 1015.3
20260904172000 88 30 4.3 6.1 0.00 0.00 0.00 56 1015.3
20260904171837 88 346 1.7 4.3 0.00 0.00 0.00 56 1015.3
20260904171734 88 343 2.6 4.3 0.00 0.00 0.00 58 1015.3
20260904171703 88 337 1.7 4.3 0.00 0.00 0.00 59 1015.3
20260904171602 88 31 0.0 4.3 0.00 0.00 0.00 59 1015.3
20260904171440 88 30 0.9 4.3 0.00 0.00 0.00 58 1015.3
20260904171339 88 28 2.6 4.3 0.00 0.00 0.00 60 1015.3
20260904171258 88 30 1.7 4.3 0.00 0.00 0.00 59 1015.6
20260904171140 88 27 0.9 4.3 0.00 0.00 0.00 59 1015.6
20260904171038 88 25 0.9 4.3 0.00 0.00 0.00 58 1015.6
20260904170936 88 23 2.6 4.3 0.00 0.00 0.00 59 1015.6
20260904170836 87 24 3.5 4.3 0.00 0.00 0.00 59 1015.6
20260904170733 87 25 1.7 4.3 0.00 0.00 0.00 59 1015.6
20260904170632 87 27 0.0 4.3 0.00 0.00 0.00 59 1015.6
20260904170551 87 27 0.9 4.3 0.00 0.00 0.00 59 1015.6
20260904170449 87 27 2.6 6.1 0.00 0.00 0.00 58 1015.6
20260904170331 87 27 2.6 6.1 0.00 0.00 0.00 58 1015.6
20260904170229 87 24 0.9 6.1 0.00 0.00 0.00 58 1015.6
20260904170200 87 24 0.9 6.1 0.00 0.00 0.00 57 1015.6
20260904170036 87 24 1.7 6.1 0.00 0.00 0.00 57 1015.6
20260904165936 87 25 1.7 6.1 0.00 0.00 0.00 58 1015.6
20260904165835 87 25 1.7 6.1 0.00 0.00 0.00 58 1015.6
20260904165734 87 24 3.5 6.1 0.00 0.00 0.00 58 1015.8
20260904165636 87 24 3.5 6.1 0.00 0.00 0.00 58 1015.8
20260904165533 87 25 3.5 6.1 0.00 0.00 0.00 59 1015.8
20260904165432 87 360 0.9 4.3 0.00 0.00 0.00 57 1015.8
20260904165351 87 360 0.9 4.3 0.00 0.00 0.00 57 1015.8
20260904165226 87 360 1.7 4.3 0.00 0.00 0.00 56 1015.8
20260904165126 87 360 0.0 4.3 0.00 0.00 0.00 57 1015.8
20260904165048 87 360 1.7 4.3 0.00 0.00 0.00 59 1015.8
20260904164926 87 360 3.5 4.3 0.00 0.00 0.00 58 1015.8
20260904164828 87 360 2.6 3.5 0.00 0.00 0.00 58 1015.8
20260904164746 87 360 0.9 3.5 0.00 0.00 0.00 58 1015.8
20260904164716 87 356 0.0 2.6 0.00 0.00 0.00 58 1015.8
20260904164533 87 357 0.9 2.6 0.00 0.00 0.00 59 1015.8
20260904164431 87 357 1.7 4.3 0.00 0.00 0.00 58 1015.8
20260904164329 87 352 1.7 4.3 0.00 0.00 0.00 57 1015.8
20260904164249 87 350 0.9 5.2 0.00 0.00 0.00 57 1015.9
20260904164127 87 350 1.7 5.2 0.00 0.00 0.00 56 1015.9
20260904164026 87 349 1.7 5.2 0.00 0.00 0.00 57 1015.9
20260904163929 87 349 0.9 5.2 0.00 0.00 0.00 57 1015.9
20260904163828 87 350 1.7 5.2 0.00 0.00 0.00 57 1015.9
20260904163749 87 352 1.7 5.2 0.00 0.00 0.00 57 1015.9
20260904163647 87 349 2.6 5.2 0.00 0.00 0.00 57 1015.9
20260904163527 87 349 1.7 5.2 0.00 0.00 0.00 56 1015.9
20260904163426 87 347 3.5 5.2 0.00 0.00 0.00 58 1015.9
20260904163344 87 347 2.6 5.2 0.00 0.00 0.00 59 1015.9
20260904163242 87 344 0.0 4.3 0.00 0.00 0.00 58 1015.9
20260904163213 87 346 0.9 4.3 0.00 0.00 0.00 59 1015.9
20260904163052 87 346 2.6 4.3 0.00 0.00 0.00 58 1015.9
20260904162930 87 346 2.6 4.3 0.00 0.00 0.00 58 1015.9
20260904162828 87 346 1.7 4.3 0.00 0.00 0.00 58 1015.9
20260904162746 87 344 2.6 4.3 0.00 0.00 0.00 59 1015.9
20260904162705 87 346 2.6 4.3 0.00 0.00 0.00 59 1015.9
20260904162542 87 346 0.9 4.3 0.00 0.00 0.00 59 1015.9
20260904162439 87 344 0.0 4.3 0.00 0.00 0.00 59 1015.9
20260904162338 87 344 1.7 4.3 0.00 0.00 0.00 60 1015.9
20260904162241 87 343 1.7 4.3 0.00 0.00 0.00 61 1015.9
20260904162140 87 343 1.7 4.3 0.00 0.00 0.00 60 1015.9
20260904162037 87 343 2.6 4.3 0.00 0.00 0.00 60 1015.9
20260904161937 87 342 2.6 4.3 0.00 0.00 0.00 60 1015.9
20260904161836 87 343 2.6 4.3 0.00 0.00 0.00 62 1015.9
20260904161738 87 287 0.0 1.7 0.00 0.00 0.00 62 1015.9
20260904161647 87 284 0.0 2.6 0.00 0.00 0.00 62 1015.9
20260904161529 87 284 0.0 2.6 0.00 0.00 0.00 62 1015.9
20260904161427 86 287 0.0 2.6 0.00 0.00 0.00 62 1015.9
20260904161346 86 287 0.0 2.6 0.00 0.00 0.00 62 1015.9
20260904161225 86 285 0.9 2.6 0.00 0.00 0.00 61 1016.0
20260904161142 86 287 0.0 2.6 0.00 0.00 0.00 62 1016.0
20260904161042 86 289 0.0 3.5 0.00 0.00 0.00 62 1016.0
20260904160941 86 289 0.0 3.5 0.00 0.00 0.00 62 1016.0
20260904160844 86 289 0.9 4.3 0.00 0.00 0.00 61 1016.0
20260904160742 86 288 1.7 4.3 0.00 0.00 0.00 61 1016.0
20260904160702 86 287 0.9 4.3 0.00 0.00 0.00 62 1016.0
20260904160539 86 287 0.0 4.3 0.00 0.00 0.00 62 1016.0
20260904160436 86 291 0.0 4.3 0.00 0.00 0.00 61 1016.0
20260904160334 86 289 2.6 4.3 0.00 0.00 0.00 62 1016.0
20260904160243 86 288 1.7 4.3 0.00 0.00 0.00 62 1016.0
20260904160152 86 280 0.9 4.3 0.00 0.00 0.00 62 1016.0
20260904160028 86 282 2.6 4.3 0.00 0.00 0.00 61 1016.0
20260904155951 86 275 0.0 2.6 0.00 0.00 0.00 61 1016.0
20260904155828 86 278 1.7 2.6 0.00 0.00 0.00 61 1016.0
20260904155727 86 277 0.9 2.6 0.00 0.00 0.00 63 1015.9
20260904155644 86 272 0.9 4.3 0.00 0.00 0.00 63 1015.9
20260904155542 86 272 0.9 4.3 0.00 0.00 0.00 64 1015.9
20260904155438 86 271 0.0 4.3 0.00 0.00 0.00 63 1015.9
20260904155336 86 268 0.0 4.3 0.00 0.00 0.00 63 1015.9
20260904155234 86 274 0.0 4.3 0.00 0.00 0.00 63 1015.9
20260904155136 85 272 0.0 4.3 0.00 0.00 0.00 64 1015.9
20260904155055 85 274 0.9 4.3 0.00 0.00 0.00 64 1015.9
20260904154931 85 272 1.7 4.3 0.00 0.00 0.00 63 1015.9
20260904154854 85 272 2.6 4.3 0.00 0.00 0.00 63 1015.9
20260904154742 85 272 2.6 4.3 0.00 0.00 0.00 63 1015.9
20260904154650 85 272 2.6 4.3 0.00 0.00 0.00 64 1015.9
20260904154527 85 270 0.0 3.5 0.00 0.00 0.00 63 1015.9
20260904154446 85 268 0.0 4.3 0.00 0.00 0.00 62 1015.9
20260904154343 85 270 0.9 4.3 0.00 0.00 0.00 63 1015.9
20260904154225 85 267 1.7 4.3 0.00 0.00 0.00 63 1015.0
20260904154143 85 270 1.7 4.3 0.00 0.00 0.00 63 1015.0
20260904154041 85 270 0.9 4.3 0.00 0.00 0.00 64 1015.0
20260904153941 85 270 1.7 4.3 0.00 0.00 0.00 64 1015.0
20260904153839 85 270 0.9 4.3 0.00 0.00 0.00 64 1015.0
20260904153738 85 268 0.9 4.3 0.00 0.00 0.00 65 1015.0
20260904153636 85 268 1.7 4.3 0.00 0.00 0.00 65 1015.0
20260904153538 85 268 1.7 4.3 0.00 0.00 0.00 65 1015.0
20260904153436 85 265 0.0 3.5 0.00 0.00 0.00 65 1015.0
20260904153353 85 263 0.0 3.5 0.00 0.00 0.00 65 1015.0
20260904153231 85 267 0.9 3.5 0.00 0.00 0.00 65 1015.0
20260904153202 85 265 0.9 3.5 0.00 0.00 0.00 66 1015.0
20260904153039 85 265 1.7 3.5 0.00 0.00 0.00 66 1015.0
20260904152940 85 264 1.7 3.5 0.00 0.00 0.00 66 1015.0
20260904152843 84 267 1.7 3.5 0.00 0.00 0.00 66 1015.0
20260904152741 84 267 1.7 3.5 0.00 0.00 0.00 66 1015.0
20260904152640 84 267 2.6 3.5 0.00 0.00 0.00 67 1015.0
20260904152537 84 264 1.7 3.5 0.00 0.00 0.00 66 1015.0
20260904152437 84 258 1.7 3.5 0.00 0.00 0.00 67 1015.0
20260904152336 84 260 1.7 3.5 0.00 0.00 0.00 67 1015.0
20260904152257 84 258 0.9 3.5 0.00 0.00 0.00 68 1015.0
20260904152155 84 254 1.7 3.5 0.00 0.00 0.00 68 1015.0
20260904152036 84 260 1.7 3.5 0.00 0.00 0.00 68 1015.0
20260904151935 84 258 0.9 2.6 0.00 0.00 0.00 68 1015.0
20260904151836 84 258 0.0 2.6 0.00 0.00 0.00 68 1015.0
20260904151733 84 260 0.0 2.6 0.00 0.00 0.00 69 1015.0
20260904151703 84 258 0.0 3.5 0.00 0.00 0.00 68 1015.0
20260904151541 84 258 0.9 3.5 0.00 0.00 0.00 69 1015.0
20260904151439 84 256 0.9 3.5 0.00 0.00 0.00 69 1015.0
20260904151342 84 258 0.0 3.5 0.00 0.00 0.00 69 1015.0
20260904151243 84 260 0.0 3.5 0.00 0.00 0.00 69 1014.9
20260904151140 84 258 0.9 3.5 0.00 0.00 0.00 69 1014.9
20260904151037 83 258 1.7 3.5 0.00 0.00 0.00 69 1014.9
20260904150934 83 258 0.0 3.5 0.00 0.00 0.00 70 1014.9
20260904150833 83 258 1.7 3.5 0.00 0.00 0.00 69 1014.9
20260904150732 83 247 0.9 2.6 0.00 0.00 0.00 69 1014.9
20260904150633 83 244 1.7 2.6 0.00 0.00 0.00 69 1014.9
20260904150533 83 246 0.9 3.5 0.00 0.00 0.00 69 1014.9
20260904150431 83 246 0.9 3.5 0.00 0.00 0.00 68 1014.9
20260904150329 83 247 0.9 3.5 0.00 0.00 0.00 68 1014.9
20260904150228 83 247 0.0 3.5 0.00 0.00 0.00 69 1014.9
20260904150200 83 247 0.0 3.5 0.00 0.00 0.00 69 1014.9
20260904150037 83 247 0.9 3.5 0.00 0.00 0.00 68 1014.9
20260904145938 83 246 1.7 3.5 0.00 0.00 0.00 68 1014.9
20260904145834 83 246 0.9 3.5 0.00 0.00 0.00 68 1014.9
20260904145753 82 247 1.7 3.5 0.00 0.00 0.00 68 1014.9
20260904145631 82 246 1.7 3.5 0.00 0.00 0.00 68 1014.9
20260904145527 82 247 0.0 2.6 0.00 0.00 0.00 69 1014.9
20260904145425 82 246 1.7 2.6 0.00 0.00 0.00 68 1014.9
20260904145343 82 247 1.7 2.6 0.00 0.00 0.00 68 1014.9
20260904145241 82 247 1.7 2.6 0.00 0.00 0.00 69 1014.9
20260904145204 82 247 0.9 4.3 0.00 0.00 0.00 69 1014.9
20260904145105 82 247 0.0 4.3 0.00 0.00 0.00 70 1014.9
20260904145001 82 248 0.9 4.3 0.00 0.00 0.00 69 1014.9
20260904144840 82 246 1.7 4.3 0.00 0.00 0.00 69 1014.9
20260904144800 82 247 1.7 4.3 0.00 0.00 0.00 69 1014.9
20260904144647 82 246 0.0 4.3 0.00 0.00 0.00 69 1014.9
20260904144544 82 247 1.7 4.3 0.00 0.00 0.00 69 1014.9
20260904144504 82 246 1.7 4.3 0.00 0.00 0.00 69 1014.9
20260904144341 82 246 2.6 4.3 0.00 0.00 0.00 70 1014.9
20260904144239 82 247 2.6 4.3 0.00 0.00 0.00 70 1014.8
20260904144142 82 246 1.7 2.6 0.00 0.00 0.00 70 1014.8
20260904144100 82 246 0.9 2.6 0.00 0.00 0.00 70 1014.8
20260904143940 82 241 0.0 2.6 0.00 0.00 0.00 69 1014.8
20260904143839 81 243 0.9 2.6 0.00 0.00 0.00 69 1014.8
20260904143758 81 243 1.7 2.6 0.00 0.00 0.00 69 1014.8
20260904143635 81 241 0.0 2.6 0.00 0.00 0.00 69 1014.8
20260904143534 81 244 0.9 2.6 0.00 0.00 0.00 69 1014.8
20260904143431 81 243 0.9 2.6 0.00 0.00 0.00 68 1014.8
20260904143334 81 240 1.7 4.3 0.00 0.00 0.00 70 1014.8
20260904143233 81 243 1.7 4.3 0.00 0.00 0.00 70 1014.8
20260904143204 81 243 1.7 5.2 0.00 0.00 0.00 71 1014.8
20260904143041 81 241 0.9 6.1 0.00 0.00 0.00 71 1014.8
20260904142938 81 243 0.0 6.1 0.00 0.00 0.00 70 1014.8
20260904142837 81 243 0.0 6.1 0.00 0.00 0.00 70 1014.8
20260904142735 81 243 0.0 6.1 0.00 0.00 0.00 71 1014.9
20260904142638 81 241 0.9 6.1 0.00 0.00 0.00 71 1014.9
20260904142536 81 241 2.6 6.1 0.00 0.00 0.00 71 1014.9
20260904142435 81 241 3.5 6.1 0.00 0.00 0.00 72 1014.9
20260904142353 81 241 4.3 6.1 0.00 0.00 0.00 72 1014.9
20260904142231 81 241 3.5 6.1 0.00 0.00 0.00 72 1014.9
20260904142128 81 239 3.5 6.1 0.00 0.00 0.00 72 1014.9
20260904142050 81 246 2.6 4.3 0.00 0.00 0.00 72 1014.9
20260904141932 81 247 0.9 5.2 0.00 0.00 0.00 72 1014.9
20260904141831 80 246 1.7 5.2 0.00 0.00 0.00 72 1014.9
20260904141741 80 247 1.7 5.2 0.00 0.00 0.00 72 1014.9
20260904141649 80 243 0.0 5.2 0.00 0.00 0.00 72 1014.9
20260904141548 80 246 0.9 5.2 0.00 0.00 0.00 72 1014.9
20260904141505 80 246 0.9 5.2 0.00 0.00 0.00 72 1014.9
20260904141404 80 247 1.7 5.2 0.00 0.00 0.00 72 1014.9
20260904141242 80 246 0.9 5.2 0.00 0.00 0.00 72 1014.7
20260904141123 80 246 3.5 5.2 0.00 0.00 0.00 72 1014.7
20260904141025 80 247 0.9 4.3 0.00 0.00 0.00 71 1014.7
20260904140925 80 248 2.6 4.3 0.00 0.00 0.00 71 1014.7
20260904140843 80 246 2.6 4.3 0.00 0.00 0.00 71 1014.7
20260904140742 80 247 1.7 4.3 0.00 0.00 0.00 71 1014.7
20260904140640 80 244 1.7 4.3 0.00 0.00 0.00 71 1014.7
20260904140557 80 247 1.7 4.3 0.00 0.00 0.00 71 1014.7
20260904140435 80 247 1.7 4.3 0.00 0.00 0.00 71 1014.7
20260904140357 80 247 1.7 4.3 0.00 0.00 0.00 71 1014.7
20260904140255 80 243 0.9 4.3 0.00 0.00 0.00 71 1014.7
20260904140226 80 243 1.7 5.2 0.00 0.00 0.00 71 1014.7
20260904140040 80 247 3.5 5.2 0.00 0.00 0.00 71 1014.7
20260904135959 80 244 2.6 5.2 0.00 0.00 0.00 71 1014.7
20260904135838 80 243 2.6 5.2 0.00 0.00 0.00 71 1014.7
20260904135735 80 241 2.6 5.2 0.00 0.00 0.00 71 1014.8
20260904135634 80 240 1.7 5.2 0.00 0.00 0.00 72 1014.8
20260904135531 80 239 0.9 5.2 0.00 0.00 0.00 72 1014.8
20260904135434 80 237 1.7 6.1 0.00 0.00 0.00 72 1014.8
20260904135355 80 237 3.5 6.1 0.00 0.00 0.00 72 1014.8
20260904135232 80 241 2.6 6.1 0.00 0.00 0.00 72 1014.8
20260904135130 79 239 1.7 6.1 0.00 0.00 0.00 72 1014.8
20260904135029 79 236 1.7 6.1 0.00 0.00 0.00 72 1014.8
20260904134928 79 239 2.6 6.1 0.00 0.00 0.00 72 1014.8
20260904134828 79 239 1.7 6.1 0.00 0.00 0.00 73 1014.8
20260904134731 79 239 1.7 6.1 0.00 0.00 0.00 73 1014.8
20260904134701 79 239 3.5 6.1 0.00 0.00 0.00 73 1014.8
20260904134539 79 233 3.5 6.1 0.00 0.00 0.00 73 1014.8
20260904134441 79 236 2.6 5.2 0.00 0.00 0.00 73 1014.8
20260904134338 79 229 1.7 5.2 0.00 0.00 0.00 75 1014.8
20260904134237 79 229 3.5 6.1 0.00 0.00 0.00 75 1014.8
20260904134135 79 227 2.6 6.1 0.00 0.00 0.00 75 1014.8
20260904134033 79 230 2.6 6.1 0.00 0.00 0.00 76 1014.8
20260904133956 79 223 3.5 6.1 0.00 0.00 0.00 76 1014.8
20260904133833 79 230 1.7 6.1 0.00 0.00 0.00 76 1014.8
20260904133733 79 229 2.6 6.1 0.00 0.00 0.00 76 1014.8
20260904133631 79 230 3.5 6.1 0.00 0.00 0.00 76 1014.8
20260904133530 79 229 4.3 7.8 0.00 0.00 0.00 76 1014.8
20260904133427 79 224 5.2 7.8 0.00 0.00 0.00 76 1014.8
20260904133325 79 216 4.3 7.8 0.00 0.00 0.00 76 1014.8
20260904133225 79 198 0.9 7.8 0.00 0.00 0.00 77 1014.8
20260904133159 79 198 1.7 7.8 0.00 0.00 0.00 77 1014.8
20260904133035 79 199 2.6 7.8 0.00 0.00 0.00 77 1014.8
20260904132933 79 198 1.7 7.8 0.00 0.00 0.00 77 1014.8
20260904132851 79 206 2.6 7.8 0.00 0.00 0.00 77 1014.8
20260904132729 79 203 5.2 7.8 0.00 0.00 0.00 77 1014.8
20260904132627 79 213 3.5 7.0 0.00 0.00 0.00 77 1014.8
20260904132525 79 212 4.3 7.0 0.00 0.00 0.00 77 1014.8
20260904132428 79 219 4.3 7.0 0.00 0.00 0.00 77 1014.8
20260904132327 79 193 1.7 2.6 0.00 0.00 0.00 77 1014.8
20260904132247 79 195 0.9 2.6 0.00 0.00 0.00 77 1014.8
20260904132144 79 191 0.9 3.5 0.00 0.00 0.00 77 1014.8
20260904132042 79 191 0.9 3.5 0.00 0.00 0.00 77 1014.8
20260904131942 79 189 0.9 3.5 0.00 0.00 0.00 77 1014.8
20260904131841 79 191 1.7 3.5 0.00 0.00 0.00 77 1014.8
20260904131724 79 188 0.9 4.3 0.00 0.00 0.00 77 1014.8
20260904131654 79 188 1.7 4.3 0.00 0.00 0.00 77 1014.8
20260904131531 79 186 0.9 4.3 0.00 0.00 0.00 77 1014.8
20260904131430 79 186 0.9 4.3 0.00 0.00 0.00 77 1014.8
20260904131329 78 184 1.7 4.3 0.00 0.00 0.00 77 1014.8
20260904131248 78 185 1.7 4.3 0.00 0.00 0.00 77 1014.6
20260904131124 78 176 0.9 4.3 0.00 0.00 0.00 77 1014.6
20260904131043 78 179 1.7 4.3 0.00 0.00 0.00 77 1014.6
20260904130926 78 176 2.6 4.3 0.00 0.00 0.00 77 1014.6
20260904130844 78 175 0.9 4.3 0.00 0.00 0.00 77 1014.6
20260904130742 78 167 0.0 4.3 0.00 0.00 0.00 77 1014.6
20260904130641 78 167 1.7 4.3 0.00 0.00 0.00 77 1014.6
20260904130541 78 167 0.9 4.3 0.00 0.00 0.00 77 1014.6
20260904130459 78 165 1.7 4.3 0.00 0.00 0.00 77 1014.6
20260904130336 78 161 1.7 4.3 0.00 0.00 0.00 78 1014.6
20260904130235 78 158 1.7 4.3 0.00 0.00 0.00 78 1014.6
20260904130209 78 158 1.7 4.3 0.00 0.00 0.00 78 1014.6
20260904130025 78 157 0.9 4.3 0.00 0.00 0.00 78 1014.6
20260904125924 78 154 2.6 4.3 0.00 0.00 0.00 78 1014.6
20260904125843 78 154 2.6 4.3 0.00 0.00 0.00 78 1014.6
20260904125742 78 155 1.7 4.3 0.00 0.00 0.00 78 1014.5
20260904125641 78 155 2.6 4.3 0.00 0.00 0.00 78 1014.5
20260904125539 78 157 2.6 4.3 0.00 0.00 0.00 78 1014.5
20260904125442 78 158 2.6 4.3 0.00 0.00 0.00 78 1014.5
20260904125341 78 158 1.7 4.3 0.00 0.00 0.00 78 1014.5
20260904125240 78 157 2.6 5.2 0.00 0.00 0.00 78 1014.5
20260904125140 78 162 2.6 5.2 0.00 0.00 0.00 78 1014.5
20260904125038 78 164 0.9 6.1 0.00 0.00 0.00 78 1014.5
20260904124937 78 161 1.7 6.1 0.00 0.00 0.00 77 1014.5
20260904124836 78 193 1.7 6.1 0.00 0.00 0.00 77 1014.5
20260904124739 78 193 1.7 6.1 0.00 0.00 0.00 77 1014.5
20260904124708 78 196 1.7 6.1 0.00 0.00 0.00 77 1014.5
20260904124526 78 200 0.9 6.1 0.00 0.00 0.00 77 1014.5
20260904124443 78 200 2.6 6.1 0.00 0.00 0.00 77 1014.5
20260904124403 78 200 2.6 6.1 0.00 0.00 0.00 77 1014.5
20260904124240 78 196 2.6 6.1 0.00 0.00 0.00 77 1014.5
20260904124139 78 195 1.7 4.3 0.00 0.00 0.00 77 1014.5
20260904124037 78 193 0.9 4.3 0.00 0.00 0.00 77 1014.5
20260904123939 78 195 0.9 5.2 0.00 0.00 0.00 77 1014.5
20260904123839 78 193 0.9 5.2 0.00 0.00 0.00 77 1014.5
20260904123737 78 193 0.9 5.2 0.00 0.00 0.00 77 1014.5
20260904123636 77 193 1.7 5.2 0.00 0.00 0.00 77 1014.5
20260904123533 77 192 0.9 5.2 0.00 0.00 0.00 77 1014.5
20260904123431 77 193 0.9 5.2 0.00 0.00 0.00 77 1014.5
20260904123331 77 193 0.9 5.2 0.00 0.00 0.00 77 1014.5
20260904123255 77 192 2.6 5.2 0.00 0.00 0.00 77 1014.5
20260904123205 77 193 2.6 5.2 0.00 0.00 0.00 77 1014.5
20260904123041 77 192 0.9 5.2 0.00 0.00 0.00 77 1014.5
20260904122940 77 192 1.7 5.2 0.00 0.00 0.00 77 1014.5
20260904122838 77 188 1.7 5.2 0.00 0.00 0.00 77 1014.5
20260904122737 77 182 2.6 5.2 0.00 0.00 0.00 77 1014.3
20260904122636 77 182 2.6 5.2 0.00 0.00 0.00 77 1014.3
20260904122538 77 179 2.6 5.2 0.00 0.00 0.00 77 1014.3
20260904122436 77 174 1.7 5.2 0.00 0.00 0.00 77 1014.3
20260904122335 77 165 0.9 5.2 0.00 0.00 0.00 77 1014.3
20260904122234 77 164 0.9 5.2 0.00 0.00 0.00 77 1014.3
20260904122151 77 164 0.9 5.2 0.00 0.00 0.00 77 1014.3
20260904122030 77 162 0.9 6.1 0.00 0.00 0.00 77 1014.3
20260904121928 77 158 1.7 6.1 0.00 0.00 0.00 77 1014.3
20260904121830 77 157 2.6 6.1 0.00 0.00 0.00 77 1014.3
20260904121748 77 151 4.3 6.1 0.00 0.00 0.00 77 1014.3
20260904121717 77 151 3.5 6.1 0.00 0.00 0.00 77 1014.3
20260904121537 77 155 2.6 6.1 0.00 0.00 0.00 77 1014.3
20260904121436 77 157 2.6 6.1 0.00 0.00 0.00 77 1014.3
20260904121338 77 154 3.5 6.1 0.00 0.00 0.00 77 1014.3
20260904121236 77 158 4.3 6.1 0.00 0.00 0.00 77 1014.1
20260904121134 77 151 3.5 6.1 0.00 0.00 0.00 77 1014.1
20260904121037 77 145 3.5 6.1 0.00 0.00 0.00 77 1014.1
20260904120935 77 145 4.3 6.1 0.00 0.00 0.00 76 1014.1
20260904120853 77 148 2.6 6.1 0.00 0.00 0.00 77 1014.1
20260904120730 77 141 2.6 6.1 0.00 0.00 0.00 76 1014.1
20260904120649 77 144 3.5 6.1 0.00 0.00 0.00 76 1014.1
20260904120529 77 131 5.2 6.1 0.00 0.00 0.00 76 1014.1
20260904120430 77 155 3.5 6.1 0.00 0.00 0.00 76 1014.1
20260904120333 77 154 3.5 6.1 0.00 0.00 0.00 76 1014.1
20260904120231 77 147 2.6 6.1 0.00 0.00 0.00 76 1014.1
20260904120203 77 154 2.6 6.1 0.00 0.00 0.00 76 1014.1
20260904120040 77 151 3.5 6.1 0.00 0.00 0.00 76 1014.1
20260904115938 77 144 3.5 6.1 0.00 0.00 0.00 76 1014.1
20260904115837 77 161 2.6 6.1 0.00 0.00 0.00 76 1014.1
20260904115735 77 138 3.5 6.1 0.00 0.00 0.00 76 1014.0
20260904115634 77 161 2.6 5.2 0.00 0.00 0.00 76 1014.0
20260904115537 77 168 3.5 6.1 0.00 0.00 0.00 76 1014.0
20260904115435 77 151 3.5 6.1 0.00 0.00 0.00 76 1014.0
20260904115333 77 148 3.5 6.1 0.00 0.00 0.00 76 1014.0
20260904115232 77 150 4.3 6.1 0.00 0.00 0.00 76 1014.0
20260904115151 77 148 3.5 6.1 0.00 0.00 0.00 76 1014.0
20260904115030 77 147 1.7 6.1 0.00 0.00 0.00 76 1014.0
20260904114928 77 141 4.3 7.0 0.00 0.00 0.00 76 1014.0
20260904114831 77 145 1.7 7.0 0.00 0.00 0.00 76 1014.0
20260904114759 77 140 5.2 7.0 0.00 0.00 0.00 76 1014.0
20260904114647 77 143 5.2 7.0 0.00 0.00 0.00 76 1014.0
20260904114524 77 147 3.5 7.0 0.00 0.00 0.00 76 1014.0
20260904114443 77 144 2.6 7.0 0.00 0.00 0.00 76 1014.0
20260904114401 77 137 4.3 7.0 0.00 0.00 0.00 76 1014.0
20260904114238 77 147 4.3 7.0 0.00 0.00 0.00 75 1013.9
20260904114135 77 148 4.3 7.0 0.00 0.00 0.00 75 1013.9
20260904114033 77 150 3.5 7.0 0.00 0.00 0.00 75 1013.9
20260904113934 77 148 2.6 6.1 0.00 0.00 0.00 75 1013.9
20260904113833 77 147 5.2 6.1 0.00 0.00 0.00 75 1013.9
20260904113733 77 148 4.3 6.1 0.00 0.00 0.00 75 1013.9
20260904113652 77 154 4.3 6.1 0.00 0.00 0.00 75 1013.9
20260904113550 77 147 4.3 6.1 0.00 0.00 0.00 75 1013.9
20260904113427 77 154 4.3 7.0 0.00 0.00 0.00 75 1013.9
20260904113325 77 157 4.3 7.0 0.00 0.00 0.00 75 1013.9
20260904113226 77 152 4.3 7.0 0.00 0.00 0.00 75 1013.9
20260904113157 77 152 2.6 7.0 0.00 0.00 0.00 75 1013.9
20260904113035 77 147 1.7 7.0 0.00 0.00 0.00 75 1013.9
20260904112952 77 148 3.5 7.0 0.00 0.00 0.00 75 1013.9
20260904112830 77 151 3.5 7.0 0.00 0.00 0.00 75 1013.9
20260904112729 77 151 5.2 7.0 0.00 0.00 0.00 75 1013.9
20260904112647 77 141 5.2 7.0 0.00 0.00 0.00 75 1013.9
20260904112544 77 143 5.2 7.0 0.00 0.00 0.00 75 1013.9
20260904112424 77 147 4.3 7.0 0.00 0.00 0.00 75 1013.9
20260904112342 77 152 5.2 7.0 0.00 0.00 0.00 75 1013.9
20260904112241 77 141 6.1 7.0 0.00 0.00 0.00 75 1013.9
20260904112140 77 143 5.2 7.0 0.00 0.00 0.00 75 1013.9
20260904112037 77 131 4.3 7.0 0.00 0.00 0.00 75 1013.9
20260904111958 77 141 3.5 7.0 0.00 0.00 0.00 75 1013.9
20260904111835 77 140 3.5 7.0 0.00 0.00 0.00 75 1013.9
20260904111744 77 136 4.3 7.0 0.00 0.00 0.00 75 1013.9
20260904111656 78 145 4.3 7.0 0.00 0.00 0.00 75 1013.9
20260904111534 78 145 3.5 7.0 0.00 0.00 0.00 75 1013.9
20260904111432 78 154 4.3 6.1 0.00 0.00 0.00 75 1013.9
20260904111332 78 145 4.3 6.1 0.00 0.00 0.00 75 1013.9
20260904111231 78 145 3.5 6.1 0.00 0.00 0.00 75 1013.5
20260904111131 78 148 3.5 6.1 0.00 0.00 0.00 75 1013.5
20260904111030 78 143 3.5 6.1 0.00 0.00 0.00 75 1013.5
20260904110933 78 137 4.3 6.1 0.00 0.00 0.00 75 1013.5
20260904110831 78 136 4.3 6.1 0.00 0.00 0.00 75 1013.5
20260904110729 78 136 2.6 6.1 0.00 0.00 0.00 75 1013.5
20260904110648 78 134 5.2 6.1 0.00 0.00 0.00 75 1013.5
20260904110526 78 127 4.3 6.1 0.00 0.00 0.00 75 1013.5
20260904110428 78 137 3.5 6.1 0.00 0.00 0.00 75 1013.5
20260904110348 78 136 4.3 6.1 0.00 0.00 0.00 75 1013.5
20260904110307 78 138 4.3 6.1 0.00 0.00 0.00 75 1013.5
20260904110222 78 141 4.3 6.1 0.00 0.00 0.00 75 1013.5
20260904110057 78 137 5.2 6.1 0.00 0.00 0.00 75 1013.5
20260904105934 78 138 2.6 6.1 0.00 0.00 0.00 75 1013.5
20260904105834 78 138 3.5 6.1 0.00 0.00 0.00 75 1013.5
20260904105732 78 137 5.2 6.1 0.00 0.00 0.00 75 1013.4
20260904105631 78 124 4.3 6.1 0.00 0.00 0.00 75 1013.4
20260904105531 78 145 5.2 6.1 0.00 0.00 0.00 75 1013.4
20260904105449 78 148 5.2 6.1 0.00 0.00 0.00 75 1013.4
20260904105330 78 136 4.3 6.1 0.00 0.00 0.00 75 1013.4
20260904105230 78 137 3.5 6.1 0.00 0.00 0.00 75 1013.4
20260904105128 78 151 2.6 6.1 0.00 0.00 0.00 75 1013.4
20260904105046 78 140 4.3 6.1 0.00 0.00 0.00 75 1013.4
20260904104923 78 140 3.5 6.1 0.00 0.00 0.00 75 1013.4
20260904104825 78 134 4.3 6.1 0.00 0.00 0.00 75 1013.4
20260904104743 78 140 4.3 6.1 0.00 0.00 0.00 75 1013.4
20260904104713 78 143 4.3 6.1 0.00 0.00 0.00 75 1013.4
20260904104555 78 145 4.3 6.1 0.00 0.00 0.00 75 1013.4
20260904104433 78 144 3.5 6.1 0.00 0.00 0.00 75 1013.4
20260904104331 78 144 4.3 6.1 0.00 0.00 0.00 75 1013.4
20260904104229 78 144 3.5 6.1 0.00 0.00 0.00 75 1013.2
20260904104148 78 140 3.5 6.1 0.00 0.00 0.00 75 1013.2
20260904104025 78 140 3.5 6.1 0.00 0.00 0.00 75 1013.2
20260904103943 78 141 5.2 6.1 0.00 0.00 0.00 75 1013.2
20260904103901 78 148 5.2 6.1 0.00 0.00 0.00 75 1013.2
20260904103743 78 145 3.5 6.1 0.00 0.00 0.00 75 1013.2
20260904103641 78 145 3.5 6.1 0.00 0.00 0.00 75 1013.2
20260904103539 78 145 1.7 6.1 0.00 0.00 0.00 75 1013.2
20260904103436 78 126 3.5 6.1 0.00 0.00 0.00 74 1013.2
20260904103354 78 141 5.2 6.1 0.00 0.00 0.00 74 1013.2
20260904103243 78 138 2.6 6.1 0.00 0.00 0.00 74 1013.2
20260904103153 78 140 4.3 6.1 0.00 0.00 0.00 74 1013.2
20260904103029 78 144 3.5 6.1 0.00 0.00 0.00 74 1013.2
20260904102931 78 145 4.3 6.1 0.00 0.00 0.00 74 1013.2
20260904102829 78 143 4.3 6.1 0.00 0.00 0.00 74 1013.2
20260904102728 78 138 3.5 6.1 0.00 0.00 0.00 74 1013.2
20260904102646 78 145 3.5 6.1 0.00 0.00 0.00 74 1013.2
20260904102605 78 143 4.3 6.1 0.00 0.00 0.00 74 1013.2
20260904102442 78 147 5.2 6.1 0.00 0.00 0.00 74 1013.2
20260904102340 78 143 3.5 6.1 0.00 0.00 0.00 74 1013.2
20260904102242 78 133 3.5 6.1 0.00 0.00 0.00 74 1013.2
20260904102141 78 140 2.6 6.1 0.00 0.00 0.00 74 1013.2
20260904102040 78 148 4.3 6.1 0.00 0.00 0.00 74 1013.2
20260904101939 78 140 4.3 6.1 0.00 0.00 0.00 74 1013.2
20260904101836 78 145 4.3 6.1 0.00 0.00 0.00 74 1013.2
20260904101736 78 147 4.3 6.1 0.00 0.00 0.00 74 1013.2
20260904101706 78 143 3.5 6.1 0.00 0.00 0.00 74 1013.2
20260904101603 78 127 1.7 7.0 0.00 0.00 0.00 74 1013.2
20260904101424 78 126 3.5 7.0 0.00 0.00 0.00 74 1013.2
20260904101342 78 144 3.5 7.0 0.00 0.00 0.00 74 1013.2
20260904101242 78 145 4.3 7.0 0.00 0.00 0.00 73 1013.0
20260904101141 78 144 5.2 7.0 0.00 0.00 0.00 73 1013.0
20260904101040 78 141 4.3 7.0 0.00 0.00 0.00 73 1013.0
20260904100938 78 143 4.3 7.0 0.00 0.00 0.00 73 1013.0
20260904100836 78 150 3.5 7.0 0.00 0.00 0.00 73 1013.0
20260904100738 78 144 4.3 7.0 0.00 0.00 0.00 73 1013.0
20260904100637 78 145 3.5 7.0 0.00 0.00 0.00 73 1013.0
20260904100535 78 147 3.5 7.0 0.00 0.00 0.00 73 1013.0
20260904100433 78 151 4.3 7.0 0.00 0.00 0.00 73 1013.0
20260904100332 78 145 4.3 7.0 0.00 0.00 0.00 73 1013.0
20260904100242 78 147 4.3 7.0 0.00 0.00 0.00 73 1013.0
20260904100153 78 152 4.3 7.0 0.00 0.00 0.00 73 1013.0
20260904100035 78 151 3.5 7.0 0.00 0.00 0.00 73 1013.0
20260904095932 78 144 4.3 7.0 0.00 0.00 0.00 73 1013.0
20260904095851 78 150 5.2 7.0 0.00 0.00 0.00 73 1013.0
20260904095728 78 147 3.5 6.1 0.00 0.00 0.00 73 1012.9
20260904095646 78 150 3.5 6.1 0.00 0.00 0.00 73 1012.9
20260904095543 78 154 4.3 6.1 0.00 0.00 0.00 74 1012.9
20260904095441 78 145 3.5 6.1 0.00 0.00 0.00 73 1012.9
20260904095400 78 148 3.5 6.1 0.00 0.00 0.00 73 1012.9
20260904095238 78 138 5.2 6.1 0.00 0.00 0.00 73 1012.9
20260904095139 78 151 5.2 6.1 0.00 0.00 0.00 73 1012.9
20260904095038 78 140 4.3 6.1 0.00 0.00 0.00 73 1012.9
20260904094937 78 147 3.5 6.1 0.00 0.00 0.00 73 1012.9
20260904094855 78 143 3.5 6.1 0.00 0.00 0.00 73 1012.9
20260904094733 78 136 3.5 7.0 0.00 0.00 0.00 73 1012.9
20260904094702 78 144 3.5 7.0 0.00 0.00 0.00 73 1012.9
20260904094539 78 147 4.3 7.0 0.00 0.00 0.00 74 1012.9
20260904094441 78 160 4.3 7.0 0.00 0.00 0.00 74 1012.9
20260904094400 78 150 4.3 7.0 0.00 0.00 0.00 74 1012.9
20260904094257 78 138 4.3 7.0 0.00 0.00 0.00 74 1012.9
20260904094135 78 136 3.5 7.0 0.00 0.00 0.00 74 1012.9
20260904094033 78 151 2.6 7.0 0.00 0.00 0.00 74 1012.9
20260904093931 78 144 5.2 7.0 0.00 0.00 0.00 74 1012.9
20260904093829 78 144 5.2 7.0 0.00 0.00 0.00 74 1012.9
20260904093728 78 137 4.3 7.0 0.00 0.00 0.00 74 1012.9
20260904093648 78 133 4.3 7.0 0.00 0.00 0.00 74 1012.9
20260904093530 78 143 3.5 7.0 0.00 0.00 0.00 74 1012.9
20260904093429 78 144 4.3 7.0 0.00 0.00 0.00 74 1012.9
20260904093327 78 144 5.2 7.0 0.00 0.00 0.00 74 1012.9
20260904093237 78 140 5.2 6.1 0.00 0.00 0.00 74 1012.9
20260904093146 78 143 3.5 6.1 0.00 0.00 0.00 74 1012.9
20260904093043 78 144 3.5 6.1 0.00 0.00 0.00 74 1012.9
20260904092942 78 145 5.2 6.1 0.00 0.00 0.00 74 1012.9
20260904092846 78 144 2.6 6.1 0.00 0.00 0.00 74 1012.9
20260904092742 78 151 3.5 6.1 0.00 0.00 0.00 74 1013.8
20260904092641 78 144 5.2 6.1 0.00 0.00 0.00 74 1013.8
20260904092539 78 138 5.2 6.1 0.00 0.00 0.00 74 1013.8
20260904092458 78 140 4.3 6.1 0.00 0.00 0.00 73 1013.8
20260904092336 78 141 3.5 7.0 0.00 0.00 0.00 73 1013.8
20260904092234 78 145 3.5 7.8 0.00 0.00 0.00 73 1013.8
20260904092133 78 136 4.3 7.8 0.00 0.00 0.00 74 1013.8
20260904092035 78 107 5.2 7.8 0.00 0.00 0.00 74 1013.8
20260904091954 78 136 5.2 7.8 0.00 0.00 0.00 74 1013.8
20260904091832 78 144 5.2 7.8 0.00 0.00 0.00 74 1013.8
20260904091730 78 131 4.3 7.8 0.00 0.00 0.00 74 1013.8
20260904091659 78 140 3.5 7.8 0.00 0.00 0.00 73 1013.8
20260904091537 79 123 5.2 7.8 0.00 0.00 0.00 74 1013.8
20260904091456 79 143 5.2 8.7 0.00 0.00 0.00 73 1013.8
20260904091336 79 145 4.3 8.7 0.00 0.00 0.00 73 1013.8
20260904091259 79 128 5.2 8.7 0.00 0.00 0.00 74 1013.6
20260904091136 79 138 4.3 8.7 0.00 0.00 0.00 74 1013.6
20260904091036 79 143 3.5 8.7 0.00 0.00 0.00 74 1013.6
20260904090932 79 133 3.5 8.7 0.00 0.00 0.00 73 1013.6
20260904090832 79 144 5.2 8.7 0.00 0.00 0.00 73 1013.6
20260904090731 79 137 6.1 8.7 0.00 0.00 0.00 73 1013.6
20260904090630 79 144 5.2 8.7 0.00 0.00 0.00 73 1013.6
20260904090532 79 127 5.2 8.7 0.00 0.00 0.00 73 1013.6
20260904090430 79 133 5.2 8.7 0.00 0.00 0.00 73 1013.6
20260904090329 79 144 5.2 8.7 0.00 0.00 0.00 73 1013.6
20260904090246 79 141 6.1 8.7 0.00 0.00 0.00 73 1013.6
20260904090156 79 134 6.1 8.7 0.00 0.00 0.00 73 1013.6
20260904090032 79 143 6.1 7.0 0.00 0.00 0.00 73 1013.6
20260904085930 79 138 3.5 7.0 0.00 0.00 0.00 73 1013.6
20260904085834 79 143 5.2 7.0 0.00 0.00 0.00 73 1013.6
20260904085733 79 171 3.5 7.0 0.00 0.00 0.00 73 1013.7
20260904085631 79 136 4.3 7.0 0.00 0.00 0.00 73 1013.7
20260904085530 79 126 5.2 7.0 0.00 0.00 0.00 73 1013.7
20260904085427 79 143 3.5 7.0 0.00 0.00 0.00 73 1013.7
20260904085324 79 136 5.2 7.0 0.00 0.00 0.00 73 1013.7
20260904085243 79 143 5.2 7.0 0.00 0.00 0.00 73 1013.7
20260904085125 79 144 3.5 7.0 0.00 0.00 0.00 73 1013.7
20260904085043 79 148 4.3 7.0 0.00 0.00 0.00 73 1013.7
20260904084941 79 148 6.1 7.0 0.00 0.00 0.00 73 1013.7
20260904084840 79 138 4.3 7.0 0.00 0.00 0.00 73 1013.7
20260904084738 79 137 5.2 7.0 0.00 0.00 0.00 73 1013.7
20260904084645 79 138 4.3 7.0 0.00 0.00 0.00 73 1013.7
20260904084541 79 138 4.3 7.0 0.00 0.00 0.00 73 1013.7
20260904084440 79 155 2.6 7.0 0.00 0.00 0.00 73 1013.7
20260904084400 78 152 4.3 7.0 0.00 0.00 0.00 72 1013.7
20260904084221 78 150 4.3 7.0 0.00 0.00 0.00 73 1013.7
20260904084144 79 151 4.3 7.0 0.00 0.00 0.00 73 1013.7
20260904084102 78 148 4.3 7.0 0.00 0.00 0.00 73 1013.7
20260904083940 78 147 5.2 7.0 0.00 0.00 0.00 73 1013.7
20260904083859 78 143 4.3 7.0 0.00 0.00 0.00 73 1013.7
20260904083737 78 147 5.2 7.0 0.00 0.00 0.00 73 1013.7
20260904083635 78 148 3.5 6.1 0.00 0.00 0.00 73 1013.7
20260904083554 78 152 4.3 6.1 0.00 0.00 0.00 73 1013.7
20260904083436 79 147 5.2 6.1 0.00 0.00 0.00 73 1013.7
20260904083336 79 145 5.2 6.1 0.00 0.00 0.00 73 1013.7
20260904083207 79 145 4.3 6.1 0.00 0.00 0.00 73 1013.7
20260904083103 79 144 4.3 6.1 0.00 0.00 0.00 74 1013.7
20260904082941 79 147 5.2 6.1 0.00 0.00 0.00 74 1013.7
20260904082839 79 141 5.2 6.1 0.00 0.00 0.00 74 1013.7
20260904082737 79 148 4.3 6.1 0.00 0.00 0.00 74 1013.6
20260904082639 79 148 4.3 6.1 0.00 0.00 0.00 73 1013.6
20260904082539 79 143 4.3 6.1 0.00 0.00 0.00 74 1013.6
20260904082437 79 148 5.2 6.1 0.00 0.00 0.00 73 1013.6
20260904082336 79 150 3.5 7.0 0.00 0.00 0.00 73 1013.6
20260904082234 79 144 4.3 7.0 0.00 0.00 0.00 73 1013.6
20260904082134 79 145 4.3 7.0 0.00 0.00 0.00 73 1013.6
20260904082033 79 148 4.3 7.0 0.00 0.00 0.00 74 1013.6
20260904081956 79 134 4.3 7.0 0.00 0.00 0.00 73 1013.6
20260904081833 79 133 3.5 7.0 0.00 0.00 0.00 73 1013.6
20260904081743 79 144 3.5 7.0 0.00 0.00 0.00 73 1013.6
20260904081652 79 140 4.3 7.0 0.00 0.00 0.00 73 1013.6
20260904081529 79 143 5.2 7.0 0.00 0.00 0.00 73 1013.6
20260904081449 79 138 5.2 6.1 0.00 0.00 0.00 73 1013.6
20260904081327 79 136 4.3 6.1 0.00 0.00 0.00 73 1013.6
20260904081225 79 137 4.3 6.1 0.00 0.00 0.00 74 1013.5
20260904081125 79 141 4.3 6.1 0.00 0.00 0.00 74 1013.5
20260904081023 79 136 4.3 6.1 0.00 0.00 0.00 74 1013.5
20260904080942 79 134 4.3 6.1 0.00 0.00 0.00 74 1013.5
20260904080842 79 136 4.3 6.1 0.00 0.00 0.00 73 1013.5
20260904080740 79 134 4.3 6.1 0.00 0.00 0.00 73 1013.5
20260904080639 79 133 4.3 6.1 0.00 0.00 0.00 73 1013.5
20260904080558 79 133 4.3 6.1 0.00 0.00 0.00 73 1013.5
20260904080455 79 136 3.5 5.2 0.00 0.00 0.00 73 1013.5
20260904080336 79 137 3.5 5.2 0.00 0.00 0.00 73 1013.5
20260904080255 79 134 4.3 5.2 0.00 0.00 0.00 72 1013.5
20260904080226 79 136 3.5 6.1 0.00 0.00 0.00 72 1013.5
20260904080041 79 138 3.5 6.1 0.00 0.00 0.00 73 1013.5
20260904075939 79 138 2.6 6.1 0.00 0.00 0.00 73 1013.5
20260904075859 79 140 2.6 6.1 0.00 0.00 0.00 72 1013.5
20260904075738 79 140 3.5 6.1 0.00 0.00 0.00 72 1013.5
20260904075636 79 131 4.3 6.1 0.00 0.00 0.00 72 1013.5
20260904075539 79 141 3.5 6.1 0.00 0.00 0.00 72 1013.5
20260904075437 79 136 3.5 6.1 0.00 0.00 0.00 72 1013.5
20260904075355 79 133 4.3 6.1 0.00 0.00 0.00 72 1013.5
20260904075233 79 134 4.3 6.1 0.00 0.00 0.00 72 1013.5
20260904075132 79 137 3.5 6.1 0.00 0.00 0.00 72 1013.5
20260904075030 79 134 4.3 6.1 0.00 0.00 0.00 72 1013.5
20260904074948 79 131 4.3 6.1 0.00 0.00 0.00 72 1013.5
20260904074845 79 131 4.3 6.1 0.00 0.00 0.00 72 1013.5
20260904074728 79 126 4.3 6.1 0.00 0.00 0.00 72 1013.5
20260904074656 79 124 4.3 6.1 0.00 0.00 0.00 72 1013.5
20260904074534 79 128 4.3 6.1 0.00 0.00 0.00 72 1013.5
20260904074433 79 127 5.2 6.1 0.00 0.00 0.00 73 1013.5
20260904074331 79 128 5.2 6.1 0.00 0.00 0.00 73 1013.5
20260904074229 79 127 5.2 6.1 0.00 0.00 0.00 73 1013.6
20260904074128 79 128 5.2 6.1 0.00 0.00 0.00 73 1013.6
20260904074027 79 130 4.3 6.1 0.00 0.00 0.00 73 1013.6
20260904073949 79 128 4.3 6.1 0.00 0.00 0.00 73 1013.6
20260904073827 79 134 4.3 6.1 0.00 0.00 0.00 73 1013.6
20260904073725 79 137 5.2 6.1 0.00 0.00 0.00 73 1013.6
20260904073643 79 134 4.3 6.1 0.00 0.00 0.00 73 1013.6
20260904073541 79 128 4.3 6.1 0.00 0.00 0.00 73 1013.6
20260904073440 79 134 5.2 6.1 0.00 0.00 0.00 73 1013.6
20260904073336 79 124 4.3 6.1 0.00 0.00 0.00 73 1013.6
20260904073254 79 134 5.2 6.1 0.00 0.00 0.00 73 1013.6
20260904073224 79 138 4.3 6.1 0.00 0.00 0.00 73 1013.6
20260904073104 79 133 3.5 6.1 0.00 0.00 0.00 73 1013.6
20260904072921 79 136 3.5 6.1 0.00 0.00 0.00 73 1013.6
20260904072843 79 133 3.5 6.1 0.00 0.00 0.00 73 1013.6
20260904072741 79 131 5.2 6.1 0.00 0.00 0.00 73 1013.6
20260904072700 79 134 4.3 6.1 0.00 0.00 0.00 73 1013.6
20260904072538 79 133 4.3 6.1 0.00 0.00 0.00 73 1013.6
20260904072436 79 131 4.3 6.1 0.00 0.00 0.00 73 1013.6
20260904072339 79 131 3.5 6.1 0.00 0.00 0.00 73 1013.6
20260904072237 79 130 3.5 6.1 0.00 0.00 0.00 73 1013.6
20260904072155 79 136 4.3 7.0 0.00 0.00 0.00 73 1013.6
20260904072032 79 140 3.5 7.0 0.00 0.00 0.00 74 1013.6
20260904071930 79 138 4.3 7.0 0.00 0.00 0.00 73 1013.6
20260904071829 79 140 4.3 7.0 0.00 0.00 0.00 73 1013.6
20260904071727 79 133 3.5 7.0 0.00 0.00 0.00 73 1013.6
20260904071656 79 130 4.3 7.0 0.00 0.00 0.00 73 1013.6
20260904071538 79 140 5.2 7.0 0.00 0.00 0.00 73 1013.6
20260904071437 79 134 5.2 7.0 0.00 0.00 0.00 73 1013.6
20260904071335 79 128 5.2 7.0 0.00 0.00 0.00 73 1013.6
20260904071233 79 124 5.2 6.1 0.00 0.00 0.00 73 1013.7
20260904071152 79 127 5.2 6.1 0.00 0.00 0.00 73 1013.7
20260904071033 79 133 4.3 6.1 0.00 0.00 0.00 72 1013.7
20260904070933 79 128 4.3 6.1 0.00 0.00 0.00 72 1013.7
20260904070835 79 119 5.2 6.1 0.00 0.00 0.00 72 1013.7
20260904070734 79 124 4.3 6.1 0.00 0.00 0.00 72 1013.7
20260904070633 79 133 4.3 6.1 0.00 0.00 0.00 72 1013.7
20260904070533 79 133 5.2 6.1 0.00 0.00 0.00 72 1013.7
20260904070433 79 120 4.3 6.1 0.00 0.00 0.00 72 1013.7
20260904070352 79 128 5.2 6.1 0.00 0.00 0.00 72 1013.7
20260904070230 79 126 5.2 6.1 0.00 0.00 0.00 72 1013.7
20260904070201 79 124 4.3 6.1 0.00 0.00 0.00 71 1013.7
20260904070042 79 127 5.2 6.1 0.00 0.00 0.00 72 1013.7
20260904065939 79 126 5.2 5.2 0.00 0.00 0.00 71 1013.7
20260904065838 79 127 4.3 5.2 0.00 0.00 0.00 71 1013.7
20260904065737 79 126 4.3 6.1 0.00 0.00 0.00 71 1013.7
20260904065656 79 126 4.3 6.1 0.00 0.00 0.00 71 1013.7
20260904065533 79 128 3.5 6.1 0.00 0.00 0.00 71 1013.7
20260904065431 79 124 4.3 6.1 0.00 0.00 0.00 71 1013.7
20260904065333 80 124 4.3 6.1 0.00 0.00 0.00 71 1013.7
20260904065232 80 120 4.3 6.1 0.00 0.00 0.00 71 1013.7
20260904065130 80 121 3.5 6.1 0.00 0.00 0.00 71 1013.7
20260904065028 80 119 4.3 6.1 0.00 0.00 0.00 71 1013.7
20260904064950 80 116 5.2 6.1 0.00 0.00 0.00 71 1013.7
20260904064849 80 117 5.2 6.1 0.00 0.00 0.00 71 1013.7
20260904064727 80 116 4.3 6.1 0.00 0.00 0.00 70 1013.7
20260904064655 80 119 5.2 6.1 0.00 0.00 0.00 71 1013.7
20260904064535 80 113 5.2 6.1 0.00 0.00 0.00 70 1013.7
20260904064453 80 121 3.5 5.2 0.00 0.00 0.00 70 1013.7
20260904064331 80 126 3.5 5.2 0.00 0.00 0.00 70 1013.7
20260904064228 80 121 2.6 5.2 0.00 0.00 0.00 70 1013.7
20260904064147 80 120 2.6 5.2 0.00 0.00 0.00 69 1013.7
20260904064043 80 119 3.5 5.2 0.00 0.00 0.00 69 1013.7
20260904063942 80 117 2.6 5.2 0.00 0.00 0.00 68 1013.7
20260904063840 80 119 3.5 5.2 0.00 0.00 0.00 68 1013.7
20260904063724 80 119 3.5 5.2 0.00 0.00 0.00 68 1013.7
20260904063642 80 119 2.6 5.2 0.00 0.00 0.00 68 1013.7
20260904063540 80 116 2.6 5.2 0.00 0.00 0.00 68 1013.7
20260904063439 80 119 3.5 5.2 0.00 0.00 0.00 67 1013.7
20260904063358 80 119 4.3 5.2 0.00 0.00 0.00 67 1013.7
20260904063316 80 117 4.3 5.2 0.00 0.00 0.00 67 1013.7
20260904063205 80 116 3.5 5.2 0.00 0.00 0.00 67 1013.7
20260904063101 80 114 3.5 5.2 0.00 0.00 0.00 67 1013.7
20260904062938 80 117 3.5 5.2 0.00 0.00 0.00 67 1013.7
20260904062858 80 117 3.5 5.2 0.00 0.00 0.00 67 1013.7
20260904062739 80 117 4.3 5.2 0.00 0.00 0.00 67 1013.9
20260904062638 80 119 4.3 5.2 0.00 0.00 0.00 68 1013.9
20260904062557 80 120 4.3 5.2 0.00 0.00 0.00 68 1013.9
20260904062434 80 113 3.5 5.2 0.00 0.00 0.00 67 1013.9
20260904062333 80 112 4.3 5.2 0.00 0.00 0.00 68 1013.9
20260904062235 80 110 3.5 5.2 0.00 0.00 0.00 68 1013.9
20260904062133 80 110 3.5 5.2 0.00 0.00 0.00 68 1013.9
20260904062036 80 107 3.5 5.2 0.00 0.00 0.00 68 1013.9
20260904061934 80 106 2.6 5.2 0.00 0.00 0.00 68 1013.9
20260904061833 80 107 4.3 5.2 0.00 0.00 0.00 68 1013.9
20260904061752 80 106 2.6 5.2 0.00 0.00 0.00 68 1013.9
20260904061700 80 104 2.6 5.2 0.00 0.00 0.00 68 1013.9
20260904061538 80 102 2.6 5.2 0.00 0.00 0.00 67 1013.9
20260904061439 80 102 2.6 5.2 0.00 0.00 0.00 67 1013.9
20260904061342 81 100 2.6 5.2 0.00 0.00 0.00 66 1013.9
20260904061242 81 102 3.5 5.2 0.00 0.00 0.00 66 1014.0
20260904061140 81 100 3.5 5.2 0.00 0.00 0.00 66 1014.0
20260904061038 81 100 4.3 5.2 0.00 0.00 0.00 66 1014.0
20260904060957 81 99 2.6 4.3 0.00 0.00 0.00 65 1014.0
20260904060834 81 97 2.6 4.3 0.00 0.00 0.00 65 1014.0
20260904060733 81 97 2.6 4.3 0.00 0.00 0.00 65 1014.0
20260904060636 81 95 2.6 4.3 0.00 0.00 0.00 65 1014.0
20260904060533 81 99 2.6 4.3 0.00 0.00 0.00 65 1014.0
20260904060451 81 97 3.5 4.3 0.00 0.00 0.00 65 1014.0
20260904060330 81 97 3.5 4.3 0.00 0.00 0.00 65 1014.0
20260904060239 81 97 2.6 4.3 0.00 0.00 0.00 65 1014.0
20260904060149 81 97 2.6 4.3 0.00 0.00 0.00 65 1014.0
20260904060024 81 97 2.6 4.3 0.00 0.00 0.00 65 1014.0
20260904055922 81 97 2.6 4.3 0.00 0.00 0.00 65 1014.0
20260904055828 81 96 2.6 4.3 0.00 0.00 0.00 65 1014.0
20260904055746 81 96 3.5 4.3 0.00 0.00 0.00 65 1014.2
20260904055643 81 97 2.6 4.3 0.00 0.00 0.00 65 1014.2
20260904055541 81 96 2.6 4.3 0.00 0.00 0.00 65 1014.2
20260904055500 81 97 2.6 4.3 0.00 0.00 0.00 65 1014.2
20260904055338 81 96 2.6 4.3 0.00 0.00 0.00 65 1014.2
20260904055238 81 95 2.6 4.3 0.00 0.00 0.00 65 1014.2
20260904055137 80 96 2.6 4.3 0.00 0.00 0.00 65 1014.2
20260904055039 80 97 2.6 4.3 0.00 0.00 0.00 65 1014.2
20260904054958 80 95 2.6 4.3 0.00 0.00 0.00 65 1014.2
20260904054835 80 97 3.5 4.3 0.00 0.00 0.00 65 1014.2
20260904054743 80 97 2.6 4.3 0.00 0.00 0.00 65 1014.2
20260904054652 80 97 2.6 4.3 0.00 0.00 0.00 65 1014.2
20260904054529 80 97 3.5 4.3 0.00 0.00 0.00 65 1014.2
20260904054427 80 97 3.5 4.3 0.00 0.00 0.00 65 1014.2
20260904054345 80 96 2.6 4.3 0.00 0.00 0.00 65 1014.2
20260904054228 80 95 2.6 4.3 0.00 0.00 0.00 65 1014.2
20260904054127 80 97 3.5 4.3 0.00 0.00 0.00 65 1014.2
20260904054025 80 97 3.5 4.3 0.00 0.00 0.00 65 1014.2
20260904053943 80 96 3.5 4.3 0.00 0.00 0.00 65 1014.2
20260904053902 80 96 2.6 4.3 0.00 0.00 0.00 65 1014.2
20260904053738 80 97 2.6 4.3 0.00 0.00 0.00 65 1014.2
20260904053636 80 96 2.6 4.3 0.00 0.00 0.00 65 1014.2
20260904053537 80 96 2.6 4.3 0.00 0.00 0.00 65 1014.2
20260904053440 80 95 3.5 5.2 0.00 0.00 0.00 65 1014.2
20260904053359 80 96 3.5 5.2 0.00 0.00 0.00 65 1014.2
20260904053237 80 96 3.5 5.2 0.00 0.00 0.00 65 1014.2
20260904053207 80 96 3.5 5.2 0.00 0.00 0.00 66 1014.2
20260904053042 80 96 3.5 5.2 0.00 0.00 0.00 66 1014.2
20260904052940 80 96 3.5 5.2 0.00 0.00 0.00 66 1014.2
20260904052839 80 97 3.5 5.2 0.00 0.00 0.00 67 1014.2
20260904052738 80 96 3.5 5.2 0.00 0.00 0.00 67 1014.3
20260904052642 80 96 3.5 5.2 0.00 0.00 0.00 67 1014.3
20260904052540 80 93 3.5 5.2 0.00 0.00 0.00 67 1014.3
20260904052438 80 95 4.3 5.2 0.00 0.00 0.00 67 1014.3
20260904052334 80 95 4.3 5.2 0.00 0.00 0.00 66 1014.3
20260904052254 80 92 3.5 5.2 0.00 0.00 0.00 67 1014.3
20260904052131 80 93 3.5 5.2 0.00 0.00 0.00 67 1014.3
20260904052030 80 93 3.5 5.2 0.00 0.00 0.00 67 1014.3
20260904051949 80 93 2.6 5.2 0.00 0.00 0.00 67 1014.3
20260904051830 80 93 2.6 5.2 0.00 0.00 0.00 68 1014.3
20260904051730 80 93 3.5 5.2 0.00 0.00 0.00 68 1014.3
20260904051700 80 95 4.3 5.2 0.00 0.00 0.00 68 1014.3
20260904051537 80 95 4.3 5.2 0.00 0.00 0.00 68 1014.3
20260904051434 80 93 3.5 4.3 0.00 0.00 0.00 67 1014.3
20260904051333 80 92 3.5 4.3 0.00 0.00 0.00 66 1014.3
20260904051231 80 93 3.5 4.3 0.00 0.00 0.00 66 1014.3
20260904051133 80 92 4.3 5.2 0.00 0.00 0.00 66 1014.3
20260904051032 80 95 3.5 5.2 0.00 0.00 0.00 66 1014.3
20260904050931 80 95 3.5 5.2 0.00 0.00 0.00 66 1014.3
20260904050829 80 92 2.6 5.2 0.00 0.00 0.00 66 1014.3
20260904050727 80 93 2.6 5.2 0.00 0.00 0.00 66 1014.3
20260904050625 80 93 4.3 5.2 0.00 0.00 0.00 67 1014.3
20260904050528 80 92 3.5 5.2 0.00 0.00 0.00 67 1014.3
20260904050426 80 92 2.6 5.2 0.00 0.00 0.00 68 1014.3
20260904050328 80 95 3.5 5.2 0.00 0.00 0.00 68 1014.3
20260904050247 80 93 4.3 5.2 0.00 0.00 0.00 68 1014.3
20260904050156 80 93 4.3 5.2 0.00 0.00 0.00 68 1014.3
20260904050053 80 92 4.3 5.2 0.00 0.00 0.00 68 1014.3
20260904045932 80 93 3.5 5.2 0.00 0.00 0.00 68 1014.3
20260904045830 80 92 2.6 5.2 0.00 0.00 0.00 68 1014.3
20260904045730 80 90 3.5 5.2 0.00 0.00 0.00 68 1014.3
20260904045631 80 90 3.5 5.2 0.00 0.00 0.00 68 1014.3
20260904045530 80 90 3.5 5.2 0.00 0.00 0.00 68 1014.3
20260904045430 80 92 4.3 5.2 0.00 0.00 0.00 68 1014.3
20260904045327 80 92 4.3 5.2 0.00 0.00 0.00 68 1014.3
20260904045225 80 92 4.3 5.2 0.00 0.00 0.00 68 1014.3
20260904045143 80 90 3.5 5.2 0.00 0.00 0.00 68 1014.3
20260904045026 80 92 4.3 5.2 0.00 0.00 0.00 68 1014.3
20260904044945 80 93 4.3 5.2 0.00 0.00 0.00 68 1014.3
20260904044903 80 92 3.5 5.2 0.00 0.00 0.00 68 1014.3
20260904044741 80 93 3.5 5.2 0.00 0.00 0.00 68 1014.3
20260904044711 80 92 4.3 5.2 0.00 0.00 0.00 68 1014.3
20260904044527 80 90 3.5 5.2 0.00 0.00 0.00 68 1014.3
20260904044425 80 93 4.3 5.2 0.00 0.00 0.00 68 1014.3
20260904044342 80 93 4.3 5.2 0.00 0.00 0.00 68 1014.3
20260904044301 80 89 4.3 5.2 0.00 0.00 0.00 68 1014.2
20260904044124 80 93 4.3 5.2 0.00 0.00 0.00 68 1014.2
20260904044043 80 93 4.3 5.2 0.00 0.00 0.00 68 1014.2
20260904043940 80 89 4.3 5.2 0.00 0.00 0.00 69 1014.2
20260904043840 80 92 4.3 5.2 0.00 0.00 0.00 69 1014.2
20260904043739 80 92 4.3 5.2 0.00 0.00 0.00 70 1014.2
20260904043638 80 93 4.3 5.2 0.00 0.00 0.00 70 1014.2
20260904043536 80 93 3.5 5.2 0.00 0.00 0.00 70 1014.2
20260904043441 80 90 4.3 5.2 0.00 0.00 0.00 71 1014.2
20260904043359 80 90 4.3 5.2 0.00 0.00 0.00 71 1014.2
20260904043256 81 90 4.3 5.2 0.00 0.00 0.00 71 1014.2
20260904043205 81 92 4.3 5.2 0.00 0.00 0.00 71 1014.2
20260904043041 81 90 4.3 5.2 0.00 0.00 0.00 71 1014.2
20260904042940 81 92 4.3 4.3 0.00 0.00 0.00 70 1014.2
20260904042838 81 92 3.5 4.3 0.00 0.00 0.00 70 1014.2
20260904042738 81 92 3.5 4.3 0.00 0.00 0.00 70 1014.2
20260904042700 81 90 2.6 4.3 0.00 0.00 0.00 70 1014.2
20260904042539 81 90 2.6 5.2 0.00 0.00 0.00 69 1014.2
20260904042437 81 90 3.5 5.2 0.00 0.00 0.00 69 1014.2
20260904042356 81 90 2.6 5.2 0.00 0.00 0.00 69 1014.2
20260904042234 81 90 1.7 5.2 0.00 0.00 0.00 69 1014.2
20260904042152 81 92 2.6 5.2 0.00 0.00 0.00 68 1014.2
20260904042049 81 88 3.5 5.2 0.00 0.00 0.00 68 1014.2
20260904041926 81 90 3.5 5.2 0.00 0.00 0.00 68 1014.2
20260904041828 81 88 3.5 5.2 0.00 0.00 0.00 68 1014.2
20260904041728 81 89 3.5 5.2 0.00 0.00 0.00 68 1014.2
20260904041701 81 89 3.5 5.2 0.00 0.00 0.00 69 1014.2
20260904041540 81 89 2.6 5.2 0.00 0.00 0.00 69 1014.2
20260904041457 81 90 3.5 5.2 0.00 0.00 0.00 69 1014.2
20260904041334 81 89 3.5 5.2 0.00 0.00 0.00 68 1014.2
20260904041233 81 88 2.6 5.2 0.00 0.00 0.00 67 1014.5
20260904041152 81 90 2.6 5.2 0.00 0.00 0.00 67 1014.5
20260904041033 81 85 2.6 5.2 0.00 0.00 0.00 67 1014.5
20260904040931 81 88 3.5 5.2 0.00 0.00 0.00 69 1014.5
20260904040830 81 89 3.5 5.2 0.00 0.00 0.00 70 1014.5
20260904040729 81 89 3.5 5.2 0.00 0.00 0.00 69 1014.5
20260904040627 81 89 3.5 5.2 0.00 0.00 0.00 68 1014.5
20260904040525 81 89 2.6 5.2 0.00 0.00 0.00 68 1014.5
20260904040424 81 89 3.5 5.2 0.00 0.00 0.00 68 1014.5
20260904040326 81 88 2.6 5.2 0.00 0.00 0.00 67 1014.5
20260904040146 81 85 3.5 5.2 0.00 0.00 0.00 67 1014.5
20260904040043 81 88 3.5 5.2 0.00 0.00 0.00 67 1014.5
20260904035941 81 88 2.6 5.2 0.00 0.00 0.00 68 1014.5
20260904035859 81 88 3.5 5.2 0.00 0.00 0.00 68 1014.5
20260904035736 81 88 4.3 5.2 0.00 0.00 0.00 68 1014.7
20260904035635 81 86 4.3 5.2 0.00 0.00 0.00 68 1014.7
20260904035533 81 88 4.3 5.2 0.00 0.00 0.00 67 1014.7
20260904035436 81 88 3.5 5.2 0.00 0.00 0.00 67 1014.7
20260904035335 81 88 4.3 5.2 0.00 0.00 0.00 67 1014.7
20260904035254 81 90 4.3 5.2 0.00 0.00 0.00 67 1014.7
20260904035131 81 103 4.3 5.2 0.00 0.00 0.00 67 1014.7
20260904035029 80 117 4.3 5.2 0.00 0.00 0.00 68 1014.7
20260904034926 80 143 4.3 5.2 0.00 0.00 0.00 68 1014.7
20260904034843 80 143 4.3 5.2 0.00 0.00 0.00 68 1014.7
20260904034743 80 144 3.5 4.3 0.00 0.00 0.00 68 1014.7
20260904034713 80 144 3.5 4.3 0.00 0.00 0.00 69 1014.7
20260904034554 80 145 3.5 4.3 0.00 0.00 0.00 69 1014.7
20260904034431 80 144 2.6 4.3 0.00 0.00 0.00 69 1014.7
20260904034329 80 143 3.5 4.3 0.00 0.00 0.00 69 1014.7
20260904034227 80 141 2.6 4.3 0.00 0.00 0.00 69 1014.8
20260904034125 80 144 2.6 4.3 0.00 0.00 0.00 69 1014.8
20260904034043 80 144 2.6 4.3 0.00 0.00 0.00 68 1014.8
20260904033941 80 144 3.5 5.2 0.00 0.00 0.00 68 1014.8
20260904033839 80 144 2.6 5.2 0.00 0.00 0.00 69 1014.8
20260904033742 80 141 2.6 5.2 0.00 0.00 0.00 69 1014.8
20260904033640 80 144 2.6 5.2 0.00 0.00 0.00 69 1014.8
20260904033535 80 143 2.6 5.2 0.00 0.00 0.00 69 1014.8
20260904033454 80 144 3.5 5.2 0.00 0.00 0.00 68 1014.8
20260904033332 80 144 3.5 5.2 0.00 0.00 0.00 68 1014.8
20260904033250 80 147 3.5 5.2 0.00 0.00 0.00 68 1014.8
20260904033200 80 148 3.5 5.2 0.00 0.00 0.00 68 1014.8
20260904033038 80 150 4.3 5.2 0.00 0.00 0.00 68 1014.8
20260904032941 80 150 3.5 5.2 0.00 0.00 0.00 69 1014.8
20260904032841 81 151 3.5 4.3 0.00 0.00 0.00 69 1014.8
20260904032720 81 151 2.6 4.3 0.00 0.00 0.00 70 1014.9
20260904032642 81 151 3.5 4.3 0.00 0.00 0.00 70 1014.9
20260904032540 81 151 4.3 4.3 0.00 0.00 0.00 70 1014.9
20260904032439 81 151 3.5 4.3 0.00 0.00 0.00 71 1014.9
20260904032359 81 154 2.6 4.3 0.00 0.00 0.00 71 1014.9
20260904032242 81 154 2.6 4.3 0.00 0.00 0.00 71 1014.9
20260904032140 81 155 3.5 4.3 0.00 0.00 0.00 71 1014.9
20260904032039 81 154 3.5 4.3 0.00 0.00 0.00 71 1014.9
20260904031957 81 152 3.5 4.3 0.00 0.00 0.00 70 1014.9
20260904031854 81 155 1.7 4.3 0.00 0.00 0.00 70 1014.9
20260904031753 81 152 1.7 4.3 0.00 0.00 0.00 71 1014.9
20260904031701 81 155 2.6 4.3 0.00 0.00 0.00 71 1014.9
20260904031540 81 155 2.6 4.3 0.00 0.00 0.00 70 1014.9
20260904031438 81 161 1.7 4.3 0.00 0.00 0.00 71 1014.9
20260904031341 81 162 2.6 4.3 0.00 0.00 0.00 71 1014.9
20260904031239 81 162 2.6 4.3 0.00 0.00 0.00 71 1014.0
20260904031137 81 162 2.6 4.3 0.00 0.00 0.00 70 1014.0
20260904031036 81 162 1.7 4.3 0.00 0.00 0.00 70 1014.0
20260904030934 81 161 1.7 4.3 0.00 0.00 0.00 70 1014.0
20260904030832 81 162 1.7 4.3 0.00 0.00 0.00 70 1014.0
20260904030734 81 161 1.7 4.3 0.00 0.00 0.00 70 1014.0
20260904030634 81 162 2.6 4.3 0.00 0.00 0.00 70 1014.0
20260904030553 81 162 2.6 4.3 0.00 0.00 0.00 71 1014.0
20260904030429 81 162 1.7 4.3 0.00 0.00 0.00 70 1014.0
20260904030329 81 162 2.6 4.3 0.00 0.00 0.00 70 1014.0
20260904030239 81 162 2.6 4.3 0.00 0.00 0.00 71 1014.0
20260904030150 81 164 2.6 4.3 0.00 0.00 0.00 70 1014.0
20260904030026 81 165 2.6 4.3 0.00 0.00 0.00 70 1014.0
20260904025930 81 162 2.6 4.3 0.00 0.00 0.00 70 1014.0
20260904025830 81 161 2.6 4.3 0.00 0.00 0.00 70 1014.0
20260904025728 81 164 2.6 4.3 0.00 0.00 0.00 70 1014.0
20260904025646 81 164 2.6 4.3 0.00 0.00 0.00 70 1014.0
20260904025605 81 165 2.6 4.3 0.00 0.00 0.00 70 1014.0
20260904025442 81 164 2.6 4.3 0.00 0.00 0.00 70 1014.0
20260904025340 81 164 2.6 4.3 0.00 0.00 0.00 70 1014.0
20260904025224 81 164 2.6 4.3 0.00 0.00 0.00 70 1014.0
20260904025142 81 162 2.6 4.3 0.00 0.00 0.00 70 1014.0
20260904025039 81 164 2.6 4.3 0.00 0.00 0.00 70 1014.0
20260904024937 81 162 2.6 4.3 0.00 0.00 0.00 70 1014.0
20260904024836 81 165 3.5 4.3 0.00 0.00 0.00 70 1014.0
20260904024705 81 164 2.6 4.3 0.00 0.00 0.00 69 1014.0
20260904024602 81 164 2.6 4.3 0.00 0.00 0.00 69 1014.0
20260904024443 81 158 2.6 4.3 0.00 0.00 0.00 69 1014.0
20260904024402 81 164 3.5 4.3 0.00 0.00 0.00 69 1014.0
20260904024259 81 164 3.5 4.3 0.00 0.00 0.00 69 1014.0
20260904024137 81 160 2.6 4.3 0.00 0.00 0.00 69 1014.0
20260904024035 81 164 2.6 4.3 0.00 0.00 0.00 70 1014.0
20260904023933 81 164 2.6 3.5 0.00 0.00 0.00 70 1014.0
20260904023832 81 164 2.6 3.5 0.00 0.00 0.00 70 1014.0
20260904023751 81 164 2.6 3.5 0.00 0.00 0.00 70 1014.0
20260904023634 81 165 2.6 2.6 0.00 0.00 0.00 69 1014.0
20260904023531 81 164 1.7 3.5 0.00 0.00 0.00 69 1014.0
20260904023451 81 162 2.6 3.5 0.00 0.00 0.00 69 1014.0
20260904023328 82 164 2.6 3.5 0.00 0.00 0.00 69 1014.0
20260904023257 82 164 2.6 3.5 0.00 0.00 0.00 69 1014.0
20260904023147 82 164 1.7 3.5 0.00 0.00 0.00 69 1014.0
20260904023043 82 164 1.7 3.5 0.00 0.00 0.00 69 1014.0
20260904022942 82 162 1.7 3.5 0.00 0.00 0.00 68 1014.0
20260904022840 82 162 1.7 3.5 0.00 0.00 0.00 68 1014.0
20260904022736 82 165 2.6 3.5 0.00 0.00 0.00 69 1013.8
20260904022639 82 158 1.7 4.3 0.00 0.00 0.00 69 1013.8
20260904022557 82 164 2.6 4.3 0.00 0.00 0.00 69 1013.8
20260904022433 82 160 2.6 4.3 0.00 0.00 0.00 69 1013.8
20260904022330 82 161 2.6 4.3 0.00 0.00 0.00 69 1013.8
20260904022229 82 165 1.7 4.3 0.00 0.00 0.00 69 1013.8
20260904022128 82 164 2.6 4.3 0.00 0.00 0.00 68 1013.8
20260904022027 82 165 2.6 4.3 0.00 0.00 0.00 69 1013.8
20260904021946 82 164 2.6 4.3 0.00 0.00 0.00 69 1013.8
20260904021825 82 167 2.6 4.3 0.00 0.00 0.00 68 1013.8
20260904021736 82 165 2.6 4.3 0.00 0.00 0.00 68 1013.8
20260904021646 82 167 3.5 4.3 0.00 0.00 0.00 67 1013.8
20260904021543 82 167 2.6 4.3 0.00 0.00 0.00 67 1013.8
20260904021441 82 167 2.6 4.3 0.00 0.00 0.00 67 1013.8
20260904021340 82 165 1.7 2.6 0.00 0.00 0.00 67 1013.8
20260904021238 82 167 1.7 2.6 0.00 0.00 0.00 67 1013.8
20260904021157 82 165 1.7 2.6 0.00 0.00 0.00 67 1013.8
20260904021039 82 167 1.7 2.6 0.00 0.00 0.00 67 1013.8
20260904020937 82 165 1.7 2.6 0.00 0.00 0.00 67 1013.8
20260904020835 82 167 1.7 2.6 0.00 0.00 0.00 66 1013.8
20260904020733 82 165 1.7 2.6 0.00 0.00 0.00 66 1013.8
20260904020651 82 167 0.9 1.7 0.00 0.00 0.00 66 1013.8
20260904020528 82 167 0.9 2.6 0.00 0.00 0.00 66 1013.8
20260904020449 82 164 0.9 2.6 0.00 0.00 0.00 66 1013.8
20260904020329 82 164 0.0 2.6 0.00 0.00 0.00 66 1013.8
20260904020228 82 167 0.9 2.6 0.00 0.00 0.00 66 1013.8
20260904020157 82 165 0.9 2.6 0.00 0.00 0.00 66 1013.8
20260904020035 82 164 0.9 2.6 0.00 0.00 0.00 66 1013.8
20260904015932 82 165 0.9 2.6 0.00 0.00 0.00 66 1013.8
20260904015852 82 167 0.9 3.5 0.00 0.00 0.00 66 1013.8
20260904015729 82 165 1.7 3.5 0.00 0.00 0.00 66 1013.4
20260904015627 82 165 1.7 3.5 0.00 0.00 0.00 66 1013.4
20260904015528 82 167 1.7 3.5 0.00 0.00 0.00 66 1013.4
20260904015428 82 165 1.7 3.5 0.00 0.00 0.00 66 1013.4
20260904015327 83 165 1.7 3.5 0.00 0.00 0.00 66 1013.4
20260904015227 83 167 1.7 3.5 0.00 0.00 0.00 66 1013.4
20260904015126 83 167 1.7 4.3 0.00 0.00 0.00 66 1013.4
20260904015025 83 165 1.7 4.3 0.00 0.00 0.00 66 1013.4
20260904014928 83 164 1.7 4.3 0.00 0.00 0.00 66 1013.4
20260904014828 83 165 1.7 4.3 0.00 0.00 0.00 66 1013.4
20260904014737 83 167 1.7 4.3 0.00 0.00 0.00 66 1013.4
20260904014647 83 165 1.7 4.3 0.00 0.00 0.00 67 1013.4
20260904014545 83 167 1.7 4.3 0.00 0.00 0.00 67 1013.4
20260904014443 83 165 1.7 4.3 0.00 0.00 0.00 67 1013.4
20260904014342 83 167 2.6 4.3 0.00 0.00 0.00 67 1013.4
20260904014240 83 167 2.6 4.3 0.00 0.00 0.00 67 1013.3
20260904014158 83 162 1.7 4.3 0.00 0.00 0.00 68 1013.3
20260904014040 83 165 1.7 4.3 0.00 0.00 0.00 68 1013.3
20260904013940 83 167 1.7 4.3 0.00 0.00 0.00 67 1013.3
20260904013840 83 167 2.6 4.3 0.00 0.00 0.00 67 1013.3
20260904013737 83 165 2.6 4.3 0.00 0.00 0.00 67 1013.3
20260904013637 83 165 2.6 4.3 0.00 0.00 0.00 66 1013.3
20260904013535 83 167 3.5 4.3 0.00 0.00 0.00 66 1013.3
20260904013437 83 165 2.6 4.3 0.00 0.00 0.00 66 1013.3
20260904013334 83 168 1.7 4.3 0.00 0.00 0.00 66 1013.3
20260904013253 83 168 2.6 4.3 0.00 0.00 0.00 66 1013.3
20260904013224 83 169 1.7 3.5 0.00 0.00 0.00 66 1013.3
20260904013039 83 168 1.7 3.5 0.00 0.00 0.00 66 1013.3
20260904012936 83 168 1.7 3.5 0.00 0.00 0.00 66 1013.3
20260904012833 83 167 1.7 3.5 0.00 0.00 0.00 66 1013.3
20260904012732 83 169 1.7 3.5 0.00 0.00 0.00 66 1013.2
20260904012636 83 168 1.7 3.5 0.00 0.00 0.00 65 1013.2
20260904012536 83 165 2.6 3.5 0.00 0.00 0.00 65 1013.2
20260904012437 83 168 1.7 2.6 0.00 0.00 0.00 66 1013.2
20260904012335 83 169 0.9 2.6 0.00 0.00 0.00 66 1013.2
20260904012235 83 168 1.7 2.6 0.00 0.00 0.00 66 1013.2
20260904012135 83 168 1.7 4.3 0.00 0.00 0.00 65 1013.2
20260904012054 83 168 1.7 4.3 0.00 0.00 0.00 65 1013.2
20260904011936 83 169 1.7 4.3 0.00 0.00 0.00 65 1013.2
20260904011834 83 169 1.7 4.3 0.00 0.00 0.00 65 1013.2
20260904011733 83 168 2.6 4.3 0.00 0.00 0.00 65 1013.2
20260904011703 83 168 1.7 4.3 0.00 0.00 0.00 65 1013.2
20260904011540 83 168 1.7 4.3 0.00 0.00 0.00 65 1013.2
20260904011440 83 167 2.6 4.3 0.00 0.00 0.00 65 1013.2
20260904011338 83 169 2.6 4.3 0.00 0.00 0.00 66 1013.2
20260904011236 83 169 2.6 4.3 0.00 0.00 0.00 65 1013.1
20260904011139 83 169 1.7 4.3 0.00 0.00 0.00 65 1013.1
20260904011038 83 171 1.7 4.3 0.00 0.00 0.00 65 1013.1
20260904010940 83 168 1.7 4.3 0.00 0.00 0.00 65 1013.1
20260904010859 83 169 2.6 4.3 0.00 0.00 0.00 66 1013.1
20260904010737 83 169 2.6 4.3 0.00 0.00 0.00 65 1013.1
20260904010634 84 169 2.6 4.3 0.00 0.00 0.00 65 1013.1
20260904010533 84 169 2.6 4.3 0.00 0.00 0.00 65 1013.1
20260904010436 84 169 2.6 4.3 0.00 0.00 0.00 65 1013.1
20260904010333 84 169 2.6 4.3 0.00 0.00 0.00 65 1013.1
20260904010244 84 171 2.6 4.3 0.00 0.00 0.00 65 1013.1
20260904010154 84 172 2.6 4.3 0.00 0.00 0.00 66 1013.1
20260904010031 84 171 1.7 4.3 0.00 0.00 0.00 65 1013.1
20260904005950 84 171 2.6 4.3 0.00 0.00 0.00 65 1013.1
20260904005827 84 172 3.5 4.3 0.00 0.00 0.00 65 1013.1
20260904005729 84 181 1.7 4.3 0.00 0.00 0.00 65 1013.0
20260904005628 84 181 2.6 4.3 0.00 0.00 0.00 65 1013.0
20260904005547 84 182 3.5 4.3 0.00 0.00 0.00 65 1013.0
20260904005424 84 185 2.6 4.3 0.00 0.00 0.00 65 1013.0
20260904005342 84 185 2.6 2.6 0.00 0.00 0.00 64 1013.0
20260904005240 84 185 1.7 2.6 0.00 0.00 0.00 64 1013.0
20260904005138 84 185 1.7 2.6 0.00 0.00 0.00 64 1013.0
20260904005036 84 185 1.7 2.6 0.00 0.00 0.00 64 1013.0
20260904004940 84 185 1.7 2.6 0.00 0.00 0.00 64 1013.0
20260904004838 84 185 1.7 2.6 0.00 0.00 0.00 64 1013.0
20260904004734 84 185 1.7 2.6 0.00 0.00 0.00 64 1013.0
20260904004704 84 181 1.7 2.6 0.00 0.00 0.00 64 1013.0
20260904004542 84 184 1.7 4.3 0.00 0.00 0.00 64 1013.0
20260904004440 84 184 1.7 4.3 0.00 0.00 0.00 63 1013.0
20260904004337 84 185 1.7 4.3 0.00 0.00 0.00 63 1013.0
20260904004240 84 184 0.9 7.0 0.00 0.00 0.00 63 1013.0
20260904004139 84 185 0.9 7.0 0.00 0.00 0.00 63 1013.0
20260904004035 84 182 0.9 7.0 0.00 0.00 0.00 63 1013.0
20260904003933 84 185 0.9 7.0 0.00 0.00 0.00 62 1013.0
20260904003832 84 185 0.9 7.0 0.00 0.00 0.00 62 1013.0
20260904003731 84 185 1.7 7.0 0.00 0.00 0.00 62 1013.0
20260904003629 84 198 1.7 7.0 0.00 0.00 0.00 62 1013.0
20260904003532 84 200 1.7 7.0 0.00 0.00 0.00 62 1013.0
20260904003430 84 199 2.6 7.0 0.00 0.00 0.00 62 1013.0
20260904003327 84 203 3.5 7.0 0.00 0.00 0.00 62 1013.0
20260904003236 84 181 3.5 5.2 0.00 0.00 0.00 62 1013.0
20260904003146 84 152 2.6 5.2 0.00 0.00 0.00 62 1013.0
20260904003042 84 71 2.6 4.3 0.00 0.00 0.00 62 1013.0
20260904002940 84 71 2.6 4.3 0.00 0.00 0.00 62 1013.0
20260904002838 84 71 2.6 4.3 0.00 0.00 0.00 62 1013.0
20260904002756 84 66 2.6 4.3 0.00 0.00 0.00 62 1012.7
20260904002634 85 69 1.7 4.3 0.00 0.00 0.00 62 1012.7
20260904002538 85 69 1.7 4.3 0.00 0.00 0.00 62 1012.7
20260904002437 85 69 1.7 4.3 0.00 0.00 0.00 62 1012.7
20260904002334 85 68 1.7 4.3 0.00 0.00 0.00 62 1012.7
20260904002233 85 68 1.7 4.3 0.00 0.00 0.00 62 1012.7
20260904002133 85 69 1.7 4.3 0.00 0.00 0.00 62 1012.7
20260904002031 85 68 1.7 4.3 0.00 0.00 0.00 62 1012.7
20260904001933 85 65 2.6 4.3 0.00 0.00 0.00 62 1012.7
20260904001833 85 56 2.6 3.5 0.00 0.00 0.00 62 1012.7
20260904001732 85 52 2.6 3.5 0.00 0.00 0.00 61 1012.7
20260904001701 85 44 1.7 2.6 0.00 0.00 0.00 62 1012.7
20260904001538 85 40 1.7 2.6 0.00 0.00 0.00 61 1012.7
20260904001438 85 44 0.9 2.6 0.00 0.00 0.00 61 1012.7
20260904001356 85 42 1.7 2.6 0.00 0.00 0.00 61 1012.7
20260904001235 85 42 1.7 2.6 0.00 0.00 0.00 61 1012.8
20260904001156 85 42 1.7 2.6 0.00 0.00 0.00 61 1012.8
20260904001038 85 42 1.7 2.6 0.00 0.00 0.00 61 1012.8
20260904000936 85 42 0.0 0.0 0.00 0.00 0.00 61 1012.8
20260904000835 85 42 0.0 0.9 0.00 0.00 0.00 61 1012.8
20260904000733 85 40 0.0 1.7 0.00 0.00 0.00 61 1012.8
20260904000632 85 42 0.0 1.7 0.00 0.00 0.00 60 1012.8
20260904000530 85 42 0.0 1.7 0.00 0.00 0.00 61 1012.8
20260904000433 85 40 0.0 1.7 0.00 0.00 0.00 60 1012.8
20260904000333 85 42 0.0 1.7 0.00 0.00 0.00 60 1012.8
20260904000303 85 42 0.0 1.7 0.00 0.00 0.00 59 1012.8
20260904000151 85 42 0.0 1.7 0.00 0.00 0.00 59 1012.8
20260904000028 85 44 0.0 1.7 0.00 0.00 0.00 59 1012.8
20260903235924 85 44 1.7 1.7 0.00 0.00 0.00 60 1012.8
20260903235843 85 42 0.9 1.7 0.00 0.00 0.00 61 1012.8
20260903235742 85 42 0.9 2.6 0.00 0.00 0.00 62 1012.7
20260903235700 86 42 0.0 2.6 0.00 0.00 0.00 62 1012.7
20260903235604 86 42 0.0 2.6 0.00 0.00 0.00 61 1012.7
20260903235440 86 42 0.0 2.6 0.00 0.00 0.00 62 1012.7
20260903235339 86 42 0.0 2.6 0.00 0.00 0.00 61 1012.7
20260903235238 86 42 0.0 2.6 0.00 0.00 0.00 61 1012.7
20260903235156 86 44 0.9 2.6 0.00 0.00 0.00 61 1012.7
20260903235033 86 42 0.9 2.6 0.00 0.00 0.00 62 1012.7
20260903234952 86 42 0.9 2.6 0.00 0.00 0.00 62 1012.7
20260903234829 86 44 0.9 2.6 0.00 0.00 0.00 62 1012.7
20260903234744 86 42 1.7 2.6 0.00 0.00 0.00 62 1012.7
20260903234653 86 41 1.7 2.6 0.00 0.00 0.00 62 1012.7
20260903234531 86 40 1.7 2.6 0.00 0.00 0.00 62 1012.7
20260903234449 86 42 0.9 2.6 0.00 0.00 0.00 62 1012.7
20260903234326 86 41 0.9 1.7 0.00 0.00 0.00 61 1012.7
20260903234245 86 41 0.9 1.7 0.00 0.00 0.00 60 1012.7
20260903234203 86 41 0.9 1.7 0.00 0.00 0.00 60 1012.7
20260903234101 86 41 0.0 1.7 0.00 0.00 0.00 60 1012.7
20260903233940 86 41 0.0 0.0 0.00 0.00 0.00 60 1012.7
20260903233824 86 41 0.0 0.0 0.00 0.00 0.00 60 1012.7
20260903233742 86 41 0.0 0.0 0.00 0.00 0.00 60 1012.7
20260903233640 86 41 0.0 0.0 0.00 0.00 0.00 60 1012.7
20260903233558 86 41 0.0 0.0 0.00 0.00 0.00 60 1012.7
20260903233435 86 41 0.0 0.0 0.00 0.00 0.00 60 1012.7
20260903233354 86 40 0.0 0.0 0.00 0.00 0.00 60 1012.7
20260903233230 86 41 0.0 0.0 0.00 0.00 0.00 60 1012.7
20260903233159 86 41 0.0 0.0 0.00 0.00 0.00 60 1012.7
20260903233040 86 41 0.0 0.0 0.00 0.00 0.00 60 1012.7
20260903232939 86 38 0.0 0.0 0.00 0.00 0.00 60 1012.7
20260903232839 86 41 0.0 0.0 0.00 0.00 0.00 59 1012.7
20260903232757 86 41 0.0 0.0 0.00 0.00 0.00 59 1012.6
20260903232634 87 37 0.0 0.0 0.00 0.00 0.00 59 1012.6
20260903232533 87 41 0.0 0.0 0.00 0.00 0.00 59 1012.6
20260903232432 87 41 0.0 0.0 0.00 0.00 0.00 59 1012.6
20260903232330 87 41 0.0 0.0 0.00 0.00 0.00 59 1012.6
20260903232232 87 41 0.0 0.0 0.00 0.00 0.00 59 1012.6
20260903232130 87 41 0.0 0.0 0.00 0.00 0.00 59 1012.6
20260903232029 87 41 0.0 0.0 0.00 0.00 0.00 59 1012.6
20260903231928 87 41 0.0 0.0 0.00 0.00 0.00 59 1012.6
20260903231829 87 40 0.0 0.0 0.00 0.00 0.00 59 1012.6
20260903231759 87 40 0.0 0.0 0.00 0.00 0.00 59 1012.6
20260903231647 87 41 0.0 0.0 0.00 0.00 0.00 59 1012.6
20260903231529 87 34 0.0 0.0 0.00 0.00 0.00 59 1012.6
20260903231427 87 41 0.0 0.0 0.00 0.00 0.00 59 1012.6
20260903231325 87 42 0.0 0.0 0.00 0.00 0.00 59 1012.6
20260903231243 87 41 0.0 0.0 0.00 0.00 0.00 59 1012.7
20260903231142 87 37 0.0 0.0 0.00 0.00 0.00 59 1012.7
20260903231040 87 41 0.0 0.9 0.00 0.00 0.00 59 1012.7
20260903230938 87 41 0.0 1.7 0.00 0.00 0.00 58 1012.7
20260903230840 87 41 0.0 1.7 0.00 0.00 0.00 58 1012.7
20260903230739 87 38 0.0 1.7 0.00 0.00 0.00 58 1012.7
20260903230636 87 40 0.0 2.6 0.00 0.00 0.00 58 1012.7
20260903230533 87 42 0.0 2.6 0.00 0.00 0.00 58 1012.7
20260903230431 87 41 0.0 2.6 0.00 0.00 0.00 59 1012.7
20260903230329 87 41 0.0 2.6 0.00 0.00 0.00 59 1012.7
20260903230238 87 40 0.0 2.6 0.00 0.00 0.00 59 1012.7
20260903230150 87 38 0.9 2.6 0.00 0.00 0.00 58 1012.7
20260903230031 87 40 0.0 2.6 0.00 0.00 0.00 58 1012.7
20260903225949 87 41 0.0 2.6 0.00 0.00 0.00 58 1012.7
20260903225847 87 37 0.9 2.6 0.00 0.00 0.00 58 1012.7
20260903225746 87 40 1.7 2.6 0.00 0.00 0.00 58 1012.6
20260903225704 87 38 1.7 2.6 0.00 0.00 0.00 58 1012.6
20260903225543 87 40 0.9 1.7 0.00 0.00 0.00 58 1012.6
20260903225441 87 41 0.9 1.7 0.00 0.00 0.00 57 1012.6
20260903225340 87 41 0.9 1.7 0.00 0.00 0.00 57 1012.6
20260903225243 87 41 0.9 1.7 0.00 0.00 0.00 57 1012.6
20260903225142 87 41 0.0 2.6 0.00 0.00 0.00 57 1012.6
20260903225041 87 41 0.0 2.6 0.00 0.00 0.00 56 1012.6
20260903224959 87 40 0.0 4.3 0.00 0.00 0.00 56 1012.6
20260903224857 87 41 0.0 4.3 0.00 0.00 0.00 56 1012.6
20260903224754 87 41 0.0 4.3 0.00 0.00 0.00 56 1012.6
20260903224703 87 40 0.0 4.3 0.00 0.00 0.00 56 1012.6
20260903224539 87 41 0.9 4.3 0.00 0.00 0.00 56 1012.6
20260903224438 87 41 0.9 4.3 0.00 0.00 0.00 56 1012.6
20260903224401 87 41 0.9 4.3 0.00 0.00 0.00 56 1012.6
20260903224238 87 41 1.7 4.3 0.00 0.00 0.00 56 1012.4
20260903224136 87 40 2.6 4.3 0.00 0.00 0.00 56 1012.4
20260903224036 87 41 2.6 4.3 0.00 0.00 0.00 56 1012.4
20260903223936 87 38 0.9 2.6 0.00 0.00 0.00 56 1012.4
20260903223835 87 41 0.9 2.6 0.00 0.00 0.00 56 1012.4
20260903223733 87 37 0.0 2.6 0.00 0.00 0.00 56 1012.4
20260903223635 87 41 1.7 2.6 0.00 0.00 0.00 56 1012.4
20260903223534 87 41 0.0 2.6 0.00 0.00 0.00 56 1012.4
20260903223432 87 41 0.9 2.6 0.00 0.00 0.00 56 1012.4
20260903223330 87 38 0.0 2.6 0.00 0.00 0.00 56 1012.4
20260903223251 87 40 0.9 2.6 0.00 0.00 0.00 56 1012.4
20260903223223 87 41 0.9 2.6 0.00 0.00 0.00 56 1012.4
20260903223037 87 41 1.7 3.5 0.00 0.00 0.00 56 1012.4
20260903222937 87 40 1.7 4.3 0.00 0.00 0.00 56 1012.4
20260903222901 87 40 1.7 4.3 0.00 0.00 0.00 56 1012.4
20260903222739 87 40 2.6 4.3 0.00 0.00 0.00 55 1012.4
20260903222657 87 40 1.7 4.3 0.00 0.00 0.00 55 1012.4
20260903222555 87 40 0.9 4.3 0.00 0.00 0.00 55 1012.4
20260903222433 87 40 0.0 4.3 0.00 0.00 0.00 55 1012.4
20260903222331 87 40 0.9 4.3 0.00 0.00 0.00 55 1012.4
20260903222229 87 40 1.7 4.3 0.00 0.00 0.00 55 1012.4
20260903222149 87 40 2.6 4.3 0.00 0.00 0.00 56 1012.4
20260903222031 87 35 1.7 4.3 0.00 0.00 0.00 56 1012.4
20260903221929 87 40 1.7 4.3 0.00 0.00 0.00 56 1012.4
20260903221828 87 40 0.0 4.3 0.00 0.00 0.00 56 1012.4
20260903221738 87 40 2.6 4.3 0.00 0.00 0.00 56 1012.4
20260903221646 87 40 3.5 4.3 0.00 0.00 0.00 56 1012.4
20260903221524 87 35 1.7 4.3 0.00 0.00 0.00 55 1012.4
20260903221441 87 37 0.9 4.3 0.00 0.00 0.00 55 1012.4
20260903221324 87 35 2.6 4.3 0.00 0.00 0.00 55 1012.4
20260903221243 87 32 2.6 4.3 0.00 0.00 0.00 55 1012.4
20260903221142 87 35 0.9 1.7 0.00 0.00 0.00 55 1012.4
20260903221041 87 35 0.0 0.9 0.00 0.00 0.00 55 1012.4
20260903220939 87 35 0.0 0.9 0.00 0.00 0.00 54 1012.4
20260903220837 87 35 0.0 0.9 0.00 0.00 0.00 55 1012.4
20260903220757 87 35 0.0 0.9 0.00 0.00 0.00 55 1012.4
20260903220633 87 35 0.0 0.9 0.00 0.00 0.00 55 1012.4
20260903220536 87 35 0.0 0.9 0.00 0.00 0.00 54 1012.4
20260903220435 87 35 0.0 1.7 0.00 0.00 0.00 54 1012.4
20260903220336 87 32 0.0 1.7 0.00 0.00 0.00 54 1012.4
20260903220244 87 34 0.0 1.7 0.00 0.00 0.00 54 1012.4
20260903220153 87 34 0.0 1.7 0.00 0.00 0.00 55 1012.4
20260903220029 87 35 0.0 1.7 0.00 0.00 0.00 55 1012.4
20260903215948 87 35 0.0 2.6 0.00 0.00 0.00 55 1012.4
20260903215829 87 34 0.0 2.6 0.00 0.00 0.00 54 1012.4
20260903215727 87 35 0.0 2.6 0.00 0.00 0.00 54 1012.4
20260903215626 87 35 1.7 2.6 0.00 0.00 0.00 54 1012.4
20260903215524 87 34 0.9 2.6 0.00 0.00 0.00 53 1012.4
20260903215441 87 35 0.9 2.6 0.00 0.00 0.00 53 1012.4
20260903215340 87 35 0.9 2.6 0.00 0.00 0.00 52 1012.4
20260903215239 87 34 1.7 2.6 0.00 0.00 0.00 52 1012.4
20260903215142 87 35 1.7 4.3 0.00 0.00 0.00 53 1012.4
20260903215039 87 35 1.7 4.3 0.00 0.00 0.00 54 1012.4
20260903214937 87 34 1.7 4.3 0.00 0.00 0.00 55 1012.4
20260903214835 87 34 1.7 4.3 0.00 0.00 0.00 55 1012.4
20260903214733 87 35 1.7 4.3 0.00 0.00 0.00 55 1012.4
20260903214701 87 35 1.7 5.2 0.00 0.00 0.00 55 1012.4
20260903214539 87 35 1.7 5.2 0.00 0.00 0.00 53 1012.4
20260903214458 87 37 1.7 5.2 0.00 0.00 0.00 52 1012.4
20260903214338 87 34 2.6 5.2 0.00 0.00 0.00 52 1012.4
20260903214237 87 35 3.5 5.2 0.00 0.00 0.00 53 1012.6
20260903214134 87 34 3.5 5.2 0.00 0.00 0.00 53 1012.6
20260903214033 87 37 2.6 5.2 0.00 0.00 0.00 53 1012.6
20260903213931 87 32 2.6 5.2 0.00 0.00 0.00 55 1012.6
20260903213830 87 37 3.5 5.2 0.00 0.00 0.00 55 1012.6
20260903213727 87 37 1.7 5.2 0.00 0.00 0.00 54 1012.6
20260903213631 87 35 1.7 5.2 0.00 0.00 0.00 53 1012.6
20260903213530 87 38 1.7 5.2 0.00 0.00 0.00 53 1012.6
20260903213447 87 37 2.6 5.2 0.00 0.00 0.00 55 1012.6
20260903213325 87 37 2.6 6.1 0.00 0.00 0.00 55 1012.6
20260903213244 87 38 2.6 6.1 0.00 0.00 0.00 55 1012.6
20260903213154 87 37 3.5 6.1 0.00 0.00 0.00 54 1012.6
20260903213030 87 35 2.6 6.1 0.00 0.00 0.00 55 1012.6
20260903212928 87 38 2.6 6.1 0.00 0.00 0.00 55 1012.6
20260903212850 87 38 1.7 6.1 0.00 0.00 0.00 56 1012.6
20260903212728 87 37 3.5 6.1 0.00 0.00 0.00 56 1012.6
20260903212647 87 38 4.3 6.1 0.00 0.00 0.00 55 1012.6
20260903212544 87 37 4.3 6.1 0.00 0.00 0.00 58 1012.6
20260903212502 87 37 5.2 6.1 0.00 0.00 0.00 57 1012.6
20260903212339 87 38 4.3 6.1 0.00 0.00 0.00 57 1012.6
20260903212238 87 34 3.5 6.1 0.00 0.00 0.00 57 1012.6
20260903212134 87 35 2.6 6.1 0.00 0.00 0.00 56 1012.6
20260903212037 87 35 3.5 6.1 0.00 0.00 0.00 56 1012.6
20260903211935 87 37 5.2 6.1 0.00 0.00 0.00 56 1012.6
20260903211833 87 34 4.3 6.1 0.00 0.00 0.00 57 1012.6
20260903211732 87 32 4.3 6.1 0.00 0.00 0.00 57 1012.6
20260903211702 87 30 4.3 7.0 0.00 0.00 0.00 56 1012.6
20260903211542 87 34 4.3 7.0 0.00 0.00 0.00 56 1012.6
20260903211438 87 30 4.3 7.0 0.00 0.00 0.00 56 1012.6
20260903211337 87 31 4.3 7.0 0.00 0.00 0.00 56 1012.6
20260903211240 87 31 3.5 7.0 0.00 0.00 0.00 56 1013.7
20260903211142 87 31 3.5 7.0 0.00 0.00 0.00 56 1013.7
20260903211041 87 31 3.5 8.7 0.00 0.00 0.00 55 1013.7
20260903210938 87 31 4.3 8.7 0.00 0.00 0.00 55 1013.7
20260903210836 87 28 5.2 10.4 0.00 0.00 0.00 54 1013.7
20260903210735 88 28 6.1 10.4 0.00 0.00 0.00 54 1013.7
20260903210636 88 25 5.2 10.4 0.00 0.00 0.00 54 1013.7
20260903210540 88 32 3.5 10.4 0.00 0.00 0.00 55 1013.7
20260903210458 88 32 4.3 10.4 0.00 0.00 0.00 55 1013.7
20260903210336 88 34 6.1 10.4 0.00 0.00 0.00 56 1013.7
20260903210253 88 34 7.0 10.4 0.00 0.00 0.00 54 1013.7
20260903210203 88 47 7.8 10.4 0.00 0.00 0.00 54 1013.7
20260903210040 88 25 7.8 10.4 0.00 0.00 0.00 54 1013.7
20260903205938 89 21 6.1 10.4 0.00 0.00 0.00 55 1013.7
20260903205836 89 42 6.1 10.4 0.00 0.00 0.00 54 1013.7
20260903205739 89 10 7.0 10.4 0.00 0.00 0.00 53 1013.7
20260903205637 89 24 8.7 10.4 0.00 0.00 0.00 53 1013.7
20260903205536 89 27 7.8 10.4 0.00 0.00 0.00 53 1013.7
20260903205435 89 42 7.0 10.4 0.00 0.00 0.00 53 1013.7
20260903205331 90 32 7.0 10.4 0.00 0.00 0.00 52 1013.7
20260903205230 90 48 6.1 10.4 0.00 0.00 0.00 51 1013.7
20260903205128 90 21 7.0 10.4 0.00 0.00 0.00 50 1013.7
20260903205034 90 8 7.8 10.4 0.00 0.00 0.00 50 1013.7
20260903204933 90 51 7.0 10.4 0.00 0.00 0.00 49 1013.7
20260903204830 90 35 7.8 10.4 0.00 0.00 0.00 49 1013.7
20260903204750 90 37 7.8 10.4 0.00 0.00 0.00 49 1013.7
20260903204659 90 32 7.0 10.4 0.00 0.00 0.00 48 1013.7
20260903204536 90 31 5.2 8.7 0.00 0.00 0.00 48 1013.7
20260903204455 90 3 5.2 8.7 0.00 0.00 0.00 47 1013.7
20260903204332 90 38 5.2 7.0 0.00 0.00 0.00 48 1013.7
20260903204234 90 49 6.1 7.0 0.00 0.00 0.00 50 1013.8
20260903204133 90 56 5.2 7.0 0.00 0.00 0.00 50 1013.8
20260903204030 90 343 4.3 6.1 0.00 0.00 0.00 48 1013.8
20260903203947 90 23 4.3 6.1 0.00 0.00 0.00 47 1013.8
20260903203825 90 359 2.6 5.2 0.00 0.00 0.00 51 1013.8
20260903203742 90 261 0.9 2.6 0.00 0.00 0.00 50 1013.8
20260903203640 90 243 0.0 2.6 0.00 0.00 0.00 51 1013.8
20260903203559 90 246 0.0 3.5 0.00 0.00 0.00 52 1013.8
20260903203436 90 244 0.9 4.3 0.00 0.00 0.00 53 1013.8
20260903203339 90 243 1.7 5.2 0.00 0.00 0.00 52 1013.8
20260903203237 90 247 0.0 5.2 0.00 0.00 0.00 52 1013.8
20260903203206 90 246 0.0 5.2 0.00 0.00 0.00 50 1013.8
20260903203041 90 246 0.0 5.2 0.00 0.00 0.00 50 1013.8
20260903202939 90 244 0.0 5.2 0.00 0.00 0.00 49 1013.8
20260903202838 90 246 0.0 5.2 0.00 0.00 0.00 48 1013.8
20260903202757 90 246 0.9 5.2 0.00 0.00 0.00 50 1014.0
20260903202633 90 246 3.5 5.2 0.00 0.00 0.00 51 1014.0
20260903202555 90 246 1.7 5.2 0.00 0.00 0.00 52 1014.0
20260903202433 90 247 0.9 5.2 0.00 0.00 0.00 51 1014.0
20260903202334 90 247 1.7 7.0 0.00 0.00 0.00 52 1014.0
20260903202231 90 240 0.9 7.0 0.00 0.00 0.00 51 1014.0
20260903202130 90 243 0.0 7.0 0.00 0.00 0.00 50 1014.0
20260903202029 90 243 0.0 7.0 0.00 0.00 0.00 51 1014.0
20260903201949 90 240 1.7 7.0 0.00 0.00 0.00 51 1014.0
20260903201830 90 243 1.7 7.0 0.00 0.00 0.00 51 1014.0
20260903201758 90 209 0.9 7.0 0.00 0.00 0.00 51 1014.0
20260903201645 90 206 2.6 7.0 0.00 0.00 0.00 51 1014.0
20260903201542 90 226 3.5 7.0 0.00 0.00 0.00 50 1014.0
20260903201442 90 215 4.3 7.0 0.00 0.00 0.00 50 1014.0
20260903201342 90 184 0.9 7.0 0.00 0.00 0.00 50 1014.0
20260903201240 90 182 1.7 7.0 0.00 0.00 0.00 50 1014.2
20260903201139 90 176 1.7 7.0 0.00 0.00 0.00 51 1014.2
20260903201042 90 236 2.6 7.0 0.00 0.00 0.00 51 1014.2
20260903201000 90 237 4.3 7.0 0.00 0.00 0.00 51 1014.2
20260903200838 90 175 2.6 4.3 0.00 0.00 0.00 50 1014.2
20260903200735 90 171 1.7 6.1 0.00 0.00 0.00 51 1014.2
20260903200634 90 172 0.9 7.0 0.00 0.00 0.00 50 1014.2
20260903200532 90 172 1.7 7.0 0.00 0.00 0.00 50 1014.2
20260903200429 90 174 0.9 7.0 0.00 0.00 0.00 50 1014.2
20260903200327 90 172 1.7 7.0 0.00 0.00 0.00 50 1014.2
20260903200241 90 172 2.6 7.0 0.00 0.00 0.00 49 1014.2
20260903200152 90 128 1.7 7.0 0.00 0.00 0.00 49 1014.2
20260903200050 90 126 2.6 7.0 0.00 0.00 0.00 52 1014.2
20260903195926 90 127 5.2 7.0 0.00 0.00 0.00 51 1014.2
20260903195845 90 134 3.5 7.0 0.00 0.00 0.00 50 1014.2
20260903195742 90 138 5.2 7.0 0.00 0.00 0.00 51 1014.3
20260903195642 90 127 2.6 4.3 0.00 0.00 0.00 50 1014.3
20260903195541 90 130 1.7 4.3 0.00 0.00 0.00 50 1014.3
20260903195443 90 128 0.9 2.6 0.00 0.00 0.00 50 1014.3
20260903195402 89 130 0.9 2.6 0.00 0.00 0.00 49 1014.3
20260903195238 89 128 1.7 2.6 0.00 0.00 0.00 49 1014.3
20260903195137 89 124 1.7 4.3 0.00 0.00 0.00 52 1014.3
20260903195035 90 127 0.9 4.3 0.00 0.00 0.00 52 1014.3
20260903194954 90 121 0.0 4.3 0.00 0.00 0.00 50 1014.3
20260903194832 90 120 0.0 4.3 0.00 0.00 0.00 50 1014.3
20260903194729 90 121 0.0 4.3 0.00 0.00 0.00 51 1014.3
20260903194703 90 121 0.0 4.3 0.00 0.00 0.00 49 1014.3
20260903194540 90 120 0.0 4.3 0.00 0.00 0.00 50 1014.3
20260903194439 90 119 0.9 4.3 0.00 0.00 0.00 51 1014.3
20260903194338 90 121 2.6 4.3 0.00 0.00 0.00 53 1014.3
20260903194236 90 119 1.7 2.6 0.00 0.00 0.00 53 1014.3
20260903194154 90 116 0.9 2.6 0.00 0.00 0.00 53 1014.3
20260903194032 90 113 0.0 2.6 0.00 0.00 0.00 53 1014.3
20260903193935 90 114 0.0 2.6 0.00 0.00 0.00 53 1014.3
20260903193833 90 113 0.0 2.6 0.00 0.00 0.00 53 1014.3
20260903193732 90 113 0.0 2.6 0.00 0.00 0.00 52 1014.3
20260903193630 90 113 1.7 4.3 0.00 0.00 0.00 52 1014.3
20260903193527 90 114 0.9 4.3 0.00 0.00 0.00 52 1014.3
20260903193424 90 112 0.0 4.3 0.00 0.00 0.00 52 1014.3
20260903193344 90 113 0.0 4.3 0.00 0.00 0.00 53 1014.3
20260903193258 90 114 1.7 4.3 0.00 0.00 0.00 53 1014.3
20260903193147 90 114 1.7 4.3 0.00 0.00 0.00 53 1014.3
20260903193048 90 112 0.0 4.3 0.00 0.00 0.00 52 1014.3
20260903193007 90 110 0.9 4.3 0.00 0.00 0.00 50 1014.3
20260903192905 90 113 2.6 4.3 0.00 0.00 0.00 53 1014.3
20260903192742 90 110 2.6 4.3 0.00 0.00 0.00 51 1014.6
20260903192640 90 116 2.6 4.3 0.00 0.00 0.00 52 1014.6
20260903192538 90 113 3.5 4.3 0.00 0.00 0.00 53 1014.6
20260903192436 90 136 1.7 5.2 0.00 0.00 0.00 51 1014.6
20260903192339 90 110 1.7 5.2 0.00 0.00 0.00 50 1014.6
20260903192238 90 109 0.9 5.2 0.00 0.00 0.00 50 1014.6
20260903192136 90 106 0.0 5.2 0.00 0.00 0.00 54 1014.6
20260903192057 90 103 0.9 5.2 0.00 0.00 0.00 51 1014.6
20260903191934 90 109 1.7 5.2 0.00 0.00 0.00 52 1014.6
20260903191853 90 110 0.9 5.2 0.00 0.00 0.00 50 1014.6
20260903191731 90 109 0.0 5.2 0.00 0.00 0.00 50 1014.6
20260903191700 90 109 1.7 5.2 0.00 0.00 0.00 50 1014.6
20260903191603 90 107 1.7 5.2 0.00 0.00 0.00 50 1014.6
20260903191439 90 34 0.9 2.6 0.00 0.00 0.00 49 1014.6
20260903191339 90 35 0.9 2.6 0.00 0.00 0.00 48 1014.6
20260903191258 90 35 0.9 2.6 0.00 0.00 0.00 48 1014.7
20260903191136 90 35 0.9 2.6 0.00 0.00 0.00 47 1014.7
20260903191035 90 35 0.9 2.6 0.00 0.00 0.00 47 1014.7
20260903190932 90 32 1.7 2.6 0.00 0.00 0.00 48 1014.7
20260903190835 90 35 0.9 2.6 0.00 0.00 0.00 48 1014.7
20260903190733 90 34 0.0 2.6 0.00 0.00 0.00 48 1014.7
20260903190632 90 35 0.0 2.6 0.00 0.00 0.00 48 1014.7
20260903190530 90 35 0.0 3.5 0.00 0.00 0.00 49 1014.7
20260903190448 90 35 0.9 3.5 0.00 0.00 0.00 51 1014.7
20260903190326 90 35 0.9 4.3 0.00 0.00 0.00 50 1014.7
20260903190224 90 37 1.7 6.1 0.00 0.00 0.00 50 1014.7
20260903190155 90 35 1.7 6.1 0.00 0.00 0.00 50 1014.7
20260903190035 90 37 1.7 6.1 0.00 0.00 0.00 50 1014.7
20260903185933 90 34 1.7 6.1 0.00 0.00 0.00 50 1014.7
20260903185834 90 37 1.7 6.1 0.00 0.00 0.00 50 1014.7
20260903185733 90 37 2.6 6.1 0.00 0.00 0.00 50 1014.8
20260903185632 90 40 0.9 6.1 0.00 0.00 0.00 50 1014.8
20260903185531 90 40 2.6 6.1 0.00 0.00 0.00 49 1014.8
20260903185435 90 41 4.3 6.1 0.00 0.00 0.00 49 1014.8
20260903185355 90 44 5.2 6.1 0.00 0.00 0.00 50 1014.8
20260903185232 90 25 5.2 6.1 0.00 0.00 0.00 50 1014.8
20260903185131 90 47 2.6 6.1 0.00 0.00 0.00 52 1014.8
20260903185030 90 49 3.5 6.1 0.00 0.00 0.00 51 1014.8
20260903184929 90 49 4.3 6.1 0.00 0.00 0.00 50 1014.8
20260903184826 90 48 2.6 6.1 0.00 0.00 0.00 50 1014.8
20260903184724 90 48 2.6 6.1 0.00 0.00 0.00 51 1014.8
20260903184655 90 205 0.0 2.6 0.00 0.00 0.00 51 1014.8
20260903184532 90 199 0.0 2.6 0.00 0.00 0.00 50 1014.8
20260903184451 90 198 0.9 5.2 0.00 0.00 0.00 49 1014.8
20260903184327 90 192 0.9 5.2 0.00 0.00 0.00 51 1014.8
20260903184227 90 195 0.0 5.2 0.00 0.00 0.00 49 1014.8
20260903184126 90 196 0.0 5.2 0.00 0.00 0.00 49 1014.8
20260903184025 90 196 0.9 5.2 0.00 0.00 0.00 50 1014.8
20260903183924 90 192 0.0 5.2 0.00 0.00 0.00 50 1014.8
20260903183827 90 192 0.9 5.2 0.00 0.00 0.00 50 1014.8
20260903183725 90 192 0.9 5.2 0.00 0.00 0.00 52 1014.8
20260903183642 90 192 2.6 5.2 0.00 0.00 0.00 51 1014.8
20260903183540 90 191 3.5 5.2 0.00 0.00 0.00 51 1014.8
20260903183439 90 138 1.7 3.5 0.00 0.00 0.00 51 1014.8
20260903183336 90 1 1.7 2.6 0.00 0.00 0.00 50 1014.8
20260903183253 90 344 0.9 2.6 0.00 0.00 0.00 49 1014.8
20260903183203 89 346 0.0 2.6 0.00 0.00 0.00 49 1014.8
20260903183024 89 346 0.9 2.6 0.00 0.00 0.00 50 1014.8
20260903182942 89 344 0.9 2.6 0.00 0.00 0.00 50 1014.8
20260903182900 89 344 0.9 2.6 0.00 0.00 0.00 51 1014.8
20260903182757 89 346 0.9 2.6 0.00 0.00 0.00 51 1015.2
20260903182634 89 344 0.0 2.6 0.00 0.00 0.00 51 1015.2
20260903182533 89 344 0.0 2.6 0.00 0.00 0.00 50 1015.2
20260903182431 89 344 1.7 4.3 0.00 0.00 0.00 51 1015.2
20260903182329 89 360 0.0 4.3 0.00 0.00 0.00 51 1015.2
20260903182231 89 360 0.0 4.3 0.00 0.00 0.00 51 1015.2
20260903182130 89 360 0.0 4.3 0.00 0.00 0.00 52 1015.2
20260903182031 89 360 0.0 4.3 0.00 0.00 0.00 52 1015.2
20260903181930 89 360 0.9 4.3 0.00 0.00 0.00 52 1015.2
20260903181828 89 1 1.7 4.3 0.00 0.00 0.00 51 1015.2
20260903181758 89 1 1.7 4.3 0.00 0.00 0.00 51 1015.2
20260903181645 89 1 2.6 4.3 0.00 0.00 0.00 51 1015.2
20260903181543 89 326 1.7 2.6 0.00 0.00 0.00 52 1015.2
20260903181446 89 326 0.0 1.7 0.00 0.00 0.00 53 1015.2
20260903181342 89 326 0.0 1.7 0.00 0.00 0.00 53 1015.2
20260903181240 89 323 0.0 1.7 0.00 0.00 0.00 51 1015.4
20260903181139 89 326 0.0 1.7 0.00 0.00 0.00 52 1015.4
20260903181036 89 323 0.0 1.7 0.00 0.00 0.00 50 1015.4
20260903180934 89 325 0.0 2.6 0.00 0.00 0.00 53 1015.4
20260903180833 89 323 0.0 2.6 0.00 0.00 0.00 54 1015.4
20260903180736 89 325 0.0 2.6 0.00 0.00 0.00 55 1015.4
20260903180635 89 325 0.9 3.5 0.00 0.00 0.00 53 1015.4
20260903180532 89 326 1.7 4.3 0.00 0.00 0.00 53 1015.4
20260903180431 89 328 1.7 5.2 0.00 0.00 0.00 50 1015.4
20260903180331 89 326 0.9 5.2 0.00 0.00 0.00 50 1015.4
20260903180231 89 326 1.7 5.2 0.00 0.00 0.00 52 1015.4
20260903180202 89 326 1.7 5.2 0.00 0.00 0.00 53 1015.4
20260903180042 89 326 0.9 5.2 0.00 0.00 0.00 53 1015.4